Time,TemperatureF,DewpointF,PressureIn,WindDirection,WindDirectionDegrees,WindSpeedMPH,WindSpeedGustMPH,Humidity,HourlyPrecipIn,Conditions,Clouds,dailyrainin,SoftwareType,DateUTC
2013-07-22 00:01:00,73.4,65.1,29.94,North,0,0.0,0.0,75,0.00,,,0.00,WUHU216HW,2013-07-22 07:01:00,
2013-07-22 00:04:00,73.4,65.1,29.94,North,0,0.0,0.0,75,0.00,,,0.00,WUHU216HW,2013-07-22 07:04:00,
2013-07-22 00:05:00,73.4,65.1,29.94,North,0,0.0,0.0,75,0.00,,,0.00,WUHU216HW,2013-07-22 07:05:00,
2013-07-22 00:06:00,73.3,64.9,29.94,North,0,0.0,0.0,75,0.00,,,0.00,WUHU216HW,2013-07-22 07:06:00,
2013-07-22 00:07:00,73.3,64.9,29.94,North,0,0.0,0.0,75,0.00,,,0.00,WUHU216HW,2013-07-22 07:07:00,
2013-07-22 00:09:00,73.3,64.9,29.94,North,0,0.0,0.0,75,0.00,,,0.00,WUHU216HW,2013-07-22 07:09:00,
2013-07-22 00:10:00,73.3,64.9,29.94,North,0,0.0,0.0,75,0.00,,,0.00,WUHU216HW,2013-07-22 07:10:00,
2013-07-22 00:11:00,73.3,64.9,29.94,North,0,0.0,0.0,75,0.00,,,0.00,WUHU216HW,2013-07-22 07:11:00,
2013-07-22 00:12:00,73.3,64.9,29.94,North,0,0.0,0.0,75,0.00,,,0.00,WUHU216HW,2013-07-22 07:12:00,
2013-07-22 00:13:00,73.3,65.3,29.94,North,0,0.0,0.0,76,0.00,,,0.00,WUHU216HW,2013-07-22 07:13:00,
2013-07-22 00:14:00,73.3,65.3,29.94,North,0,0.0,0.0,76,0.00,,,0.00,WUHU216HW,2013-07-22 07:14:00,
2013-07-22 00:15:00,73.3,65.3,29.94,North,0,0.0,0.0,76,0.00,,,0.00,WUHU216HW,2013-07-22 07:15:00,
2013-07-22 00:16:00,73.3,65.3,29.94,North,0,0.0,0.0,76,0.00,,,0.00,WUHU216HW,2013-07-22 07:16:00,
2013-07-22 00:17:00,73.3,65.3,29.94,North,0,0.0,0.0,76,0.00,,,0.00,WUHU216HW,2013-07-22 07:17:00,
2013-07-22 00:19:00,73.3,65.3,29.94,North,0,0.0,0.0,76,0.00,,,0.00,WUHU216HW,2013-07-22 07:19:00,
2013-07-22 00:20:00,73.1,65.1,29.94,North,0,0.0,0.0,76,0.00,,,0.00,WUHU216HW,2013-07-22 07:20:00,
2013-07-22 00:21:00,73.3,65.3,29.94,North,0,0.0,0.0,76,0.00,,,0.00,WUHU216HW,2013-07-22 07:21:00,
2013-07-22 00:23:00,73.3,65.3,29.94,North,0,0.0,0.0,76,0.00,,,0.00,WUHU216HW,2013-07-22 07:23:00,
2013-07-22 00:24:00,73.1,65.4,29.94,North,0,0.0,0.0,77,0.00,,,0.00,WUHU216HW,2013-07-22 07:24:00,
2013-07-22 00:25:00,73.1,65.4,29.94,North,0,0.0,0.0,77,0.00,,,0.00,WUHU216HW,2013-07-22 07:25:00,
2013-07-22 00:27:00,73.1,65.1,29.94,North,0,0.0,0.0,76,0.00,,,0.00,WUHU216HW,2013-07-22 07:27:00,
2013-07-22 00:28:00,73.1,65.1,29.94,North,0,0.0,0.0,76,0.00,,,0.00,WUHU216HW,2013-07-22 07:28:00,
2013-07-22 00:29:00,73.1,65.1,29.94,North,0,0.0,0.0,76,0.00,,,0.00,WUHU216HW,2013-07-22 07:29:00,
2013-07-22 00:31:00,73.1,65.1,29.94,North,0,0.0,0.0,76,0.00,,,0.00,WUHU216HW,2013-07-22 07:31:00,
2013-07-22 00:32:00,73.1,65.1,29.94,North,0,0.0,0.0,76,0.00,,,0.00,WUHU216HW,2013-07-22 07:32:00,
2013-07-22 00:35:00,73.1,65.1,29.94,North,0,0.0,0.0,76,0.00,,,0.00,WUHU216HW,2013-07-22 07:35:00,
2013-07-22 00:36:00,73.1,65.1,29.94,North,0,0.0,0.0,76,0.00,,,0.00,WUHU216HW,2013-07-22 07:36:00,
2013-07-22 00:37:00,73.1,65.1,29.94,North,0,0.0,0.0,76,0.00,,,0.00,WUHU216HW,2013-07-22 07:37:00,
2013-07-22 00:40:00,73.1,65.1,29.94,North,0,0.0,0.0,76,0.00,,,0.00,WUHU216HW,2013-07-22 07:40:00,
2013-07-22 00:41:00,73.1,65.1,29.94,North,0,0.0,0.0,76,0.00,,,0.00,WUHU216HW,2013-07-22 07:41:00,
2013-07-22 00:42:00,73.1,65.1,29.94,North,0,0.0,0.0,76,0.00,,,0.00,WUHU216HW,2013-07-22 07:42:00,
2013-07-22 00:43:00,73.1,65.1,29.94,North,0,0.0,0.0,76,0.00,,,0.00,WUHU216HW,2013-07-22 07:43:00,
2013-07-22 00:45:00,73.1,65.1,29.94,North,0,0.0,0.0,76,0.00,,,0.00,WUHU216HW,2013-07-22 07:45:00,
2013-07-22 00:46:00,73.1,65.1,29.94,North,0,0.0,0.0,76,0.00,,,0.00,WUHU216HW,2013-07-22 07:46:00,
2013-07-22 00:47:00,73.1,65.1,29.94,North,0,0.0,0.0,76,0.00,,,0.00,WUHU216HW,2013-07-22 07:47:00,
2013-07-22 00:48:00,73.1,65.1,29.94,North,0,0.0,0.0,76,0.00,,,0.00,WUHU216HW,2013-07-22 07:48:00,
2013-07-22 00:49:00,73.1,65.1,29.94,North,0,0.0,0.0,76,0.00,,,0.00,WUHU216HW,2013-07-22 07:49:00,
2013-07-22 00:51:00,73.1,65.9,29.94,North,0,0.0,0.0,78,0.00,,,0.00,WUHU216HW,2013-07-22 07:51:00,
2013-07-22 00:52:00,73.1,65.9,29.94,North,0,0.0,0.0,78,0.00,,,0.00,WUHU216HW,2013-07-22 07:52:00,
2013-07-22 00:53:00,73.1,65.9,29.94,North,0,0.0,0.0,78,0.00,,,0.00,WUHU216HW,2013-07-22 07:53:00,
2013-07-22 00:54:00,73.1,65.4,29.94,North,0,0.0,0.0,77,0.00,,,0.00,WUHU216HW,2013-07-22 07:54:00,
2013-07-22 00:55:00,73.1,65.4,29.94,North,0,0.0,0.0,77,0.00,,,0.00,WUHU216HW,2013-07-22 07:55:00,
2013-07-22 00:57:00,73.1,65.4,29.94,North,0,0.0,0.0,77,0.00,,,0.00,WUHU216HW,2013-07-22 07:57:00,
2013-07-22 00:58:00,73.1,65.4,29.94,North,0,0.0,0.0,77,0.00,,,0.00,WUHU216HW,2013-07-22 07:58:00,
2013-07-22 00:59:00,73.1,65.4,29.94,North,0,0.0,0.0,77,0.00,,,0.00,WUHU216HW,2013-07-22 07:59:00,
2013-07-22 01:01:00,73.1,65.1,29.94,North,0,0.0,0.0,76,0.00,,,0.00,WUHU216HW,2013-07-22 08:01:00,
2013-07-22 01:03:00,73.1,65.1,29.94,North,0,0.0,0.0,76,0.00,,,0.00,WUHU216HW,2013-07-22 08:03:00,
2013-07-22 01:04:00,73.1,65.4,29.94,North,0,0.0,0.0,77,0.00,,,0.00,WUHU216HW,2013-07-22 08:04:00,
2013-07-22 01:05:00,73.1,65.4,29.94,North,0,0.0,0.0,77,0.00,,,0.00,WUHU216HW,2013-07-22 08:05:00,
2013-07-22 01:06:00,73.1,65.4,29.94,North,0,0.0,0.0,77,0.00,,,0.00,WUHU216HW,2013-07-22 08:06:00,
2013-07-22 01:08:00,73.1,65.4,29.94,North,0,0.0,0.0,77,0.00,,,0.00,WUHU216HW,2013-07-22 08:08:00,
2013-07-22 01:09:00,73.1,65.4,29.94,North,0,0.0,0.0,77,0.00,,,0.00,WUHU216HW,2013-07-22 08:09:00,
2013-07-22 01:10:00,73.1,65.4,29.93,North,0,0.0,0.0,77,0.00,,,0.00,WUHU216HW,2013-07-22 08:10:00,
2013-07-22 01:11:00,73.1,65.4,29.93,North,0,0.0,0.0,77,0.00,,,0.00,WUHU216HW,2013-07-22 08:11:00,
2013-07-22 01:14:00,73.1,65.4,29.93,North,0,0.0,0.0,77,0.00,,,0.00,WUHU216HW,2013-07-22 08:14:00,
2013-07-22 01:15:00,73.1,65.4,29.93,North,0,0.0,0.0,77,0.00,,,0.00,WUHU216HW,2013-07-22 08:15:00,
2013-07-22 01:16:00,73.1,65.9,29.93,North,0,0.0,0.0,78,0.00,,,0.00,WUHU216HW,2013-07-22 08:16:00,
2013-07-22 01:17:00,73.1,65.9,29.93,North,0,0.0,0.0,78,0.00,,,0.00,WUHU216HW,2013-07-22 08:17:00,
2013-07-22 01:19:00,73.1,65.9,29.93,North,0,0.0,0.0,78,0.00,,,0.00,WUHU216HW,2013-07-22 08:19:00,
2013-07-22 01:20:00,73.1,65.9,29.93,North,0,0.0,0.0,78,0.00,,,0.00,WUHU216HW,2013-07-22 08:20:00,
2013-07-22 01:21:00,73.1,65.9,29.93,North,0,0.0,0.0,78,0.00,,,0.00,WUHU216HW,2013-07-22 08:21:00,
2013-07-22 01:22:00,73.1,65.9,29.93,North,0,0.0,0.0,78,0.00,,,0.00,WUHU216HW,2013-07-22 08:22:00,
2013-07-22 01:25:00,73.1,65.9,29.93,North,0,0.0,0.0,78,0.00,,,0.00,WUHU216HW,2013-07-22 08:25:00,
2013-07-22 01:27:00,73.1,65.9,29.93,North,0,0.0,0.0,78,0.00,,,0.00,WUHU216HW,2013-07-22 08:27:00,
2013-07-22 01:28:00,73.1,65.9,29.93,North,0,0.0,0.0,78,0.00,,,0.00,WUHU216HW,2013-07-22 08:28:00,
2013-07-22 01:31:00,73.1,65.9,29.93,North,0,0.0,0.0,78,0.00,,,0.00,WUHU216HW,2013-07-22 08:31:00,
2013-07-22 01:32:00,72.9,65.7,29.93,North,0,0.0,0.0,78,0.00,,,0.00,WUHU216HW,2013-07-22 08:32:00,
2013-07-22 01:33:00,73.1,65.9,29.93,North,0,0.0,0.0,78,0.00,,,0.00,WUHU216HW,2013-07-22 08:33:00,
2013-07-22 01:36:00,72.9,65.7,29.93,North,0,0.0,0.0,78,0.00,,,0.00,WUHU216HW,2013-07-22 08:36:00,
2013-07-22 01:38:00,72.9,65.7,29.93,North,0,0.0,0.0,78,0.00,,,0.00,WUHU216HW,2013-07-22 08:38:00,
2013-07-22 01:40:00,72.9,65.7,29.93,North,0,0.0,0.0,78,0.00,,,0.00,WUHU216HW,2013-07-22 08:40:00,
2013-07-22 01:41:00,72.9,65.7,29.93,North,0,0.0,0.0,78,0.00,,,0.00,WUHU216HW,2013-07-22 08:41:00,
2013-07-22 01:44:00,72.7,65.9,29.93,North,0,0.0,0.0,79,0.00,,,0.00,WUHU216HW,2013-07-22 08:44:00,
2013-07-22 01:45:00,72.7,65.9,29.93,North,0,0.0,0.0,79,0.00,,,0.00,WUHU216HW,2013-07-22 08:45:00,
2013-07-22 01:46:00,72.7,65.9,29.93,North,0,0.0,0.0,79,0.00,,,0.00,WUHU216HW,2013-07-22 08:46:00,
2013-07-22 01:47:00,72.7,65.9,29.93,North,0,0.0,0.0,79,0.00,,,0.00,WUHU216HW,2013-07-22 08:47:00,
2013-07-22 01:49:00,72.7,65.5,29.93,North,0,0.0,0.0,78,0.00,,,0.00,WUHU216HW,2013-07-22 08:49:00,
2013-07-22 01:50:00,72.7,65.5,29.93,North,0,0.0,0.0,78,0.00,,,0.00,WUHU216HW,2013-07-22 08:50:00,
2013-07-22 01:51:00,72.7,65.5,29.93,North,0,0.0,0.0,78,0.00,,,0.00,WUHU216HW,2013-07-22 08:51:00,
2013-07-22 01:52:00,72.7,65.5,29.93,North,0,0.0,0.0,78,0.00,,,0.00,WUHU216HW,2013-07-22 08:52:00,
2013-07-22 01:54:00,72.7,65.5,29.93,North,0,0.0,0.0,78,0.00,,,0.00,WUHU216HW,2013-07-22 08:54:00,
2013-07-22 01:56:00,72.7,65.5,29.93,North,0,0.0,0.0,78,0.00,,,0.00,WUHU216HW,2013-07-22 08:56:00,
2013-07-22 01:57:00,72.5,65.4,29.93,North,0,0.0,0.0,78,0.00,,,0.00,WUHU216HW,2013-07-22 08:57:00,
2013-07-22 01:58:00,72.7,65.5,29.93,North,0,0.0,0.0,78,0.00,,,0.00,WUHU216HW,2013-07-22 08:58:00,
2013-07-22 02:00:00,72.5,65.7,29.93,North,0,0.0,0.0,79,0.00,,,0.00,WUHU216HW,2013-07-22 09:00:00,
2013-07-22 02:01:00,72.5,65.7,29.93,North,0,0.0,0.0,79,0.00,,,0.00,WUHU216HW,2013-07-22 09:01:00,
2013-07-22 02:03:00,72.5,65.7,29.93,North,0,0.0,0.0,79,0.00,,,0.00,WUHU216HW,2013-07-22 09:03:00,
2013-07-22 02:04:00,72.5,65.7,29.93,North,0,0.0,0.0,79,0.00,,,0.00,WUHU216HW,2013-07-22 09:04:00,
2013-07-22 02:05:00,72.5,65.7,29.93,North,0,0.0,0.0,79,0.00,,,0.00,WUHU216HW,2013-07-22 09:05:00,
2013-07-22 02:06:00,72.4,65.2,29.93,North,0,0.0,0.0,78,0.00,,,0.00,WUHU216HW,2013-07-22 09:06:00,
2013-07-22 02:07:00,72.4,65.2,29.93,North,0,0.0,0.0,78,0.00,,,0.00,WUHU216HW,2013-07-22 09:07:00,
2013-07-22 02:09:00,72.4,65.2,29.92,North,0,0.0,0.0,78,0.00,,,0.00,WUHU216HW,2013-07-22 09:09:00,
2013-07-22 02:11:00,72.4,65.2,29.93,North,0,0.0,0.0,78,0.00,,,0.00,WUHU216HW,2013-07-22 09:11:00,
2013-07-22 02:12:00,72.4,65.2,29.93,North,0,0.0,0.0,78,0.00,,,0.00,WUHU216HW,2013-07-22 09:12:00,
2013-07-22 02:13:00,72.4,65.2,29.93,North,0,0.0,0.0,78,0.00,,,0.00,WUHU216HW,2013-07-22 09:13:00,
2013-07-22 02:14:00,72.2,65.0,29.92,North,0,0.0,0.0,78,0.00,,,0.00,WUHU216HW,2013-07-22 09:14:00,
2013-07-22 02:15:00,72.2,65.0,29.92,North,0,0.0,0.0,78,0.00,,,0.00,WUHU216HW,2013-07-22 09:15:00,
2013-07-22 02:16:00,72.2,65.4,29.92,North,0,0.0,0.0,79,0.00,,,0.00,WUHU216HW,2013-07-22 09:16:00,
2013-07-22 02:18:00,72.2,65.4,29.93,North,0,0.0,0.0,79,0.00,,,0.00,WUHU216HW,2013-07-22 09:18:00,
2013-07-22 02:20:00,72.2,65.4,29.92,North,0,0.0,0.0,79,0.00,,,0.00,WUHU216HW,2013-07-22 09:20:00,
2013-07-22 02:22:00,72.0,64.8,29.92,North,0,0.0,0.0,78,0.00,,,0.00,WUHU216HW,2013-07-22 09:22:00,
2013-07-22 02:23:00,72.0,64.8,29.92,North,0,0.0,0.0,78,0.00,,,0.00,WUHU216HW,2013-07-22 09:23:00,
2013-07-22 02:24:00,72.0,64.8,29.92,North,0,0.0,0.0,78,0.00,,,0.00,WUHU216HW,2013-07-22 09:24:00,
2013-07-22 02:25:00,72.0,64.8,29.92,North,0,0.0,0.0,78,0.00,,,0.00,WUHU216HW,2013-07-22 09:25:00,
2013-07-22 02:28:00,72.0,64.8,29.92,North,0,0.0,0.0,78,0.00,,,0.00,WUHU216HW,2013-07-22 09:28:00,
2013-07-22 02:29:00,72.0,64.8,29.92,North,0,0.0,0.0,78,0.00,,,0.00,WUHU216HW,2013-07-22 09:29:00,
2013-07-22 02:31:00,72.0,64.8,29.92,North,0,0.0,0.0,78,0.00,,,0.00,WUHU216HW,2013-07-22 09:31:00,
2013-07-22 02:34:00,72.0,64.8,29.92,North,0,0.0,0.0,78,0.00,,,0.00,WUHU216HW,2013-07-22 09:34:00,
2013-07-22 02:35:00,72.0,64.8,29.92,North,0,0.0,0.0,78,0.00,,,0.00,WUHU216HW,2013-07-22 09:35:00,
2013-07-22 02:36:00,72.0,64.8,29.92,North,0,0.0,0.0,78,0.00,,,0.00,WUHU216HW,2013-07-22 09:36:00,
2013-07-22 02:39:00,72.0,64.8,29.92,North,0,0.0,0.0,78,0.00,,,0.00,WUHU216HW,2013-07-22 09:39:00,
2013-07-22 02:41:00,72.0,64.8,29.92,North,0,0.0,0.0,78,0.00,,,0.00,WUHU216HW,2013-07-22 09:41:00,
2013-07-22 02:42:00,72.0,64.8,29.92,North,0,0.0,0.0,78,0.00,,,0.00,WUHU216HW,2013-07-22 09:42:00,
2013-07-22 02:44:00,72.0,64.8,29.92,North,0,0.0,0.0,78,0.00,,,0.00,WUHU216HW,2013-07-22 09:44:00,
2013-07-22 02:46:00,72.0,64.8,29.92,North,0,0.0,0.0,78,0.00,,,0.00,WUHU216HW,2013-07-22 09:46:00,
2013-07-22 02:47:00,72.0,64.4,29.92,North,0,0.0,0.0,77,0.00,,,0.00,WUHU216HW,2013-07-22 09:47:00,
2013-07-22 02:49:00,72.0,64.4,29.92,North,0,0.0,0.0,77,0.00,,,0.00,WUHU216HW,2013-07-22 09:49:00,
2013-07-22 02:52:00,72.0,64.4,29.92,North,0,0.0,0.0,77,0.00,,,0.00,WUHU216HW,2013-07-22 09:52:00,
2013-07-22 02:53:00,72.0,64.4,29.92,North,0,0.0,0.0,77,0.00,,,0.00,WUHU216HW,2013-07-22 09:53:00,
2013-07-22 02:55:00,71.8,64.2,29.92,North,0,0.0,0.0,77,0.00,,,0.00,WUHU216HW,2013-07-22 09:55:00,
2013-07-22 02:56:00,71.8,64.2,29.92,North,0,0.0,0.0,77,0.00,,,0.00,WUHU216HW,2013-07-22 09:56:00,
2013-07-22 02:57:00,72.0,64.4,29.92,North,0,0.0,0.0,77,0.00,,,0.00,WUHU216HW,2013-07-22 09:57:00,
2013-07-22 02:59:00,71.8,64.2,29.92,North,0,0.0,0.0,77,0.00,,,0.00,WUHU216HW,2013-07-22 09:59:00,
2013-07-22 03:00:00,71.8,64.2,29.92,North,0,0.0,0.0,77,0.00,,,0.00,WUHU216HW,2013-07-22 10:00:00,
2013-07-22 03:01:00,71.8,64.2,29.92,North,0,0.0,0.0,77,0.00,,,0.00,WUHU216HW,2013-07-22 10:01:00,
2013-07-22 03:02:00,71.8,64.6,29.92,North,0,0.0,0.0,78,0.00,,,0.00,WUHU216HW,2013-07-22 10:02:00,
2013-07-22 03:03:00,71.8,64.6,29.92,North,0,0.0,0.0,78,0.00,,,0.00,WUHU216HW,2013-07-22 10:03:00,
2013-07-22 03:06:00,71.8,64.2,29.92,North,0,0.0,0.0,77,0.00,,,0.00,WUHU216HW,2013-07-22 10:06:00,
2013-07-22 03:07:00,71.8,64.2,29.92,North,0,0.0,0.0,77,0.00,,,0.00,WUHU216HW,2013-07-22 10:07:00,
2013-07-22 03:08:00,71.8,64.2,29.92,North,0,0.0,0.0,77,0.00,,,0.00,WUHU216HW,2013-07-22 10:08:00,
2013-07-22 03:10:00,71.6,64.0,29.92,North,0,0.0,0.0,77,0.00,,,0.00,WUHU216HW,2013-07-22 10:10:00,
2013-07-22 03:11:00,71.6,64.0,29.92,North,0,0.0,0.0,77,0.00,,,0.00,WUHU216HW,2013-07-22 10:11:00,
2013-07-22 03:12:00,71.6,64.0,29.92,North,0,0.0,0.0,77,0.00,,,0.00,WUHU216HW,2013-07-22 10:12:00,
2013-07-22 03:13:00,71.6,64.0,29.92,North,0,0.0,0.0,77,0.00,,,0.00,WUHU216HW,2013-07-22 10:13:00,
2013-07-22 03:16:00,71.6,64.0,29.92,North,0,0.0,0.0,77,0.00,,,0.00,WUHU216HW,2013-07-22 10:16:00,
2013-07-22 03:17:00,71.6,64.0,29.92,North,0,0.0,0.0,77,0.00,,,0.00,WUHU216HW,2013-07-22 10:17:00,
2013-07-22 03:19:00,71.6,64.0,29.92,North,0,0.0,0.0,77,0.00,,,0.00,WUHU216HW,2013-07-22 10:19:00,
2013-07-22 03:21:00,71.6,64.0,29.92,North,0,0.0,0.0,77,0.00,,,0.00,WUHU216HW,2013-07-22 10:21:00,
2013-07-22 03:22:00,71.6,64.0,29.92,North,0,0.0,0.0,77,0.00,,,0.00,WUHU216HW,2013-07-22 10:22:00,
2013-07-22 03:23:00,71.6,64.0,29.92,North,0,0.0,0.0,77,0.00,,,0.00,WUHU216HW,2013-07-22 10:23:00,
2013-07-22 03:25:00,71.6,64.0,29.92,North,0,0.0,0.0,77,0.00,,,0.00,WUHU216HW,2013-07-22 10:25:00,
2013-07-22 03:27:00,71.6,64.0,29.92,North,0,0.0,0.0,77,0.00,,,0.00,WUHU216HW,2013-07-22 10:27:00,
2013-07-22 03:28:00,71.6,64.0,29.92,North,0,0.0,0.0,77,0.00,,,0.00,WUHU216HW,2013-07-22 10:28:00,
2013-07-22 03:29:00,71.6,64.0,29.92,North,0,0.0,0.0,77,0.00,,,0.00,WUHU216HW,2013-07-22 10:29:00,
2013-07-22 03:30:00,71.6,64.0,29.92,North,0,0.0,0.0,77,0.00,,,0.00,WUHU216HW,2013-07-22 10:30:00,
2013-07-22 03:33:00,71.5,63.8,29.92,North,0,0.0,0.0,77,0.00,,,0.00,WUHU216HW,2013-07-22 10:33:00,
2013-07-22 03:34:00,71.5,63.8,29.92,North,0,0.0,0.0,77,0.00,,,0.00,WUHU216HW,2013-07-22 10:34:00,
2013-07-22 03:35:00,71.5,63.8,29.92,North,0,0.0,0.0,77,0.00,,,0.00,WUHU216HW,2013-07-22 10:35:00,
2013-07-22 03:36:00,71.5,64.3,29.92,North,0,0.0,0.0,78,0.00,,,0.00,WUHU216HW,2013-07-22 10:36:00,
2013-07-22 03:38:00,71.5,63.8,29.92,North,0,0.0,0.0,77,0.00,,,0.00,WUHU216HW,2013-07-22 10:38:00,
2013-07-22 03:39:00,71.5,64.3,29.92,North,0,0.0,0.0,78,0.00,,,0.00,WUHU216HW,2013-07-22 10:39:00,
2013-07-22 03:40:00,71.5,64.3,29.92,North,0,0.0,0.0,78,0.00,,,0.00,WUHU216HW,2013-07-22 10:40:00,
2013-07-22 03:41:00,71.3,64.1,29.92,North,0,0.0,0.0,78,0.00,,,0.00,WUHU216HW,2013-07-22 10:41:00,
2013-07-22 03:43:00,71.3,64.1,29.92,North,0,0.0,0.0,78,0.00,,,0.00,WUHU216HW,2013-07-22 10:43:00,
2013-07-22 03:45:00,71.3,64.1,29.92,North,0,0.0,0.0,78,0.00,,,0.00,WUHU216HW,2013-07-22 10:45:00,
2013-07-22 03:46:00,71.3,64.1,29.92,North,0,0.0,0.0,78,0.00,,,0.00,WUHU216HW,2013-07-22 10:46:00,
2013-07-22 03:47:00,71.3,64.1,29.92,North,0,0.0,0.0,78,0.00,,,0.00,WUHU216HW,2013-07-22 10:47:00,
2013-07-22 03:49:00,71.3,64.1,29.92,North,0,0.0,0.0,78,0.00,,,0.00,WUHU216HW,2013-07-22 10:49:00,
2013-07-22 03:50:00,71.3,64.1,29.92,North,0,0.0,0.0,78,0.00,,,0.00,WUHU216HW,2013-07-22 10:50:00,
2013-07-22 03:52:00,71.3,64.1,29.92,North,0,0.0,0.0,78,0.00,,,0.00,WUHU216HW,2013-07-22 10:52:00,
2013-07-22 03:54:00,71.1,63.9,29.92,North,0,0.0,0.0,78,0.00,,,0.00,WUHU216HW,2013-07-22 10:54:00,
2013-07-22 03:55:00,71.1,63.9,29.92,North,0,0.0,0.0,78,0.00,,,0.00,WUHU216HW,2013-07-22 10:55:00,
2013-07-22 03:56:00,71.1,63.9,29.92,North,0,0.0,0.0,78,0.00,,,0.00,WUHU216HW,2013-07-22 10:56:00,
2013-07-22 03:57:00,71.1,63.9,29.92,North,0,0.0,0.0,78,0.00,,,0.00,WUHU216HW,2013-07-22 10:57:00,
2013-07-22 03:59:00,71.1,63.9,29.92,North,0,0.0,0.0,78,0.00,,,0.00,WUHU216HW,2013-07-22 10:59:00,
2013-07-22 04:01:00,70.9,64.1,29.92,North,0,0.0,0.0,79,0.00,,,0.00,WUHU216HW,2013-07-22 11:01:00,
2013-07-22 04:02:00,70.9,64.1,29.92,North,0,0.0,0.0,79,0.00,,,0.00,WUHU216HW,2013-07-22 11:02:00,
2013-07-22 04:05:00,70.9,64.4,29.91,North,0,0.0,0.0,80,0.00,,,0.00,WUHU216HW,2013-07-22 11:05:00,
2013-07-22 04:06:00,70.7,64.3,29.92,North,0,0.0,0.0,80,0.00,,,0.00,WUHU216HW,2013-07-22 11:06:00,
2013-07-22 04:07:00,70.6,64.1,29.91,North,0,0.0,0.0,80,0.00,,,0.00,WUHU216HW,2013-07-22 11:07:00,
2013-07-22 04:08:00,70.6,64.1,29.91,North,0,0.0,0.0,80,0.00,,,0.00,WUHU216HW,2013-07-22 11:08:00,
2013-07-22 04:10:00,70.6,64.1,29.92,North,0,0.0,0.0,80,0.00,,,0.00,WUHU216HW,2013-07-22 11:10:00,
2013-07-22 04:11:00,70.6,64.1,29.92,North,0,0.0,0.0,80,0.00,,,0.00,WUHU216HW,2013-07-22 11:11:00,
2013-07-22 04:13:00,70.6,64.1,29.92,North,0,0.0,0.0,80,0.00,,,0.00,WUHU216HW,2013-07-22 11:13:00,
2013-07-22 04:14:00,70.6,64.1,29.92,North,0,0.0,0.0,80,0.00,,,0.00,WUHU216HW,2013-07-22 11:14:00,
2013-07-22 04:15:00,70.4,63.9,29.92,North,0,0.0,0.0,80,0.00,,,0.00,WUHU216HW,2013-07-22 11:15:00,
2013-07-22 04:16:00,70.4,63.9,29.92,North,0,0.0,0.0,80,0.00,,,0.00,WUHU216HW,2013-07-22 11:16:00,
2013-07-22 04:19:00,70.4,63.9,29.92,North,0,0.0,0.0,80,0.00,,,0.00,WUHU216HW,2013-07-22 11:19:00,
2013-07-22 04:20:00,70.4,63.9,29.92,North,0,0.0,0.0,80,0.00,,,0.00,WUHU216HW,2013-07-22 11:20:00,
2013-07-22 04:21:00,70.4,63.9,29.92,North,0,0.0,0.0,80,0.00,,,0.00,WUHU216HW,2013-07-22 11:21:00,
2013-07-22 04:24:00,70.4,63.9,29.92,North,0,0.0,0.0,80,0.00,,,0.00,WUHU216HW,2013-07-22 11:24:00,
2013-07-22 04:25:00,70.4,63.9,29.92,North,0,0.0,0.0,80,0.00,,,0.00,WUHU216HW,2013-07-22 11:25:00,
2013-07-22 04:26:00,70.4,63.9,29.92,North,0,0.0,0.0,80,0.00,,,0.00,WUHU216HW,2013-07-22 11:26:00,
2013-07-22 04:27:00,70.4,63.9,29.92,North,0,0.0,0.0,80,0.00,,,0.00,WUHU216HW,2013-07-22 11:27:00,
2013-07-22 04:29:00,70.4,63.9,29.93,North,0,0.0,0.0,80,0.00,,,0.00,WUHU216HW,2013-07-22 11:29:00,
2013-07-22 04:31:00,70.4,63.9,29.93,North,0,0.0,0.0,80,0.00,,,0.00,WUHU216HW,2013-07-22 11:31:00,
2013-07-22 04:32:00,70.4,63.9,29.93,North,0,0.0,0.0,80,0.00,,,0.00,WUHU216HW,2013-07-22 11:32:00,
2013-07-22 04:36:00,70.2,63.7,29.93,North,0,0.0,0.0,80,0.00,,,0.00,WUHU216HW,2013-07-22 11:36:00,
2013-07-22 04:37:00,70.2,63.7,29.93,North,0,0.0,0.0,80,0.00,,,0.00,WUHU216HW,2013-07-22 11:37:00,
2013-07-22 04:41:00,70.2,63.7,29.93,North,0,0.0,0.0,80,0.00,,,0.00,WUHU216HW,2013-07-22 11:41:00,
2013-07-22 04:42:00,70.2,63.7,29.93,North,0,0.0,0.0,80,0.00,,,0.00,WUHU216HW,2013-07-22 11:42:00,
2013-07-22 04:43:00,70.2,63.7,29.93,North,0,0.0,0.0,80,0.00,,,0.00,WUHU216HW,2013-07-22 11:43:00,
2013-07-22 04:47:00,70.2,63.7,29.93,North,0,0.0,0.0,80,0.00,,,0.00,WUHU216HW,2013-07-22 11:47:00,
2013-07-22 04:48:00,70.2,63.7,29.93,North,0,0.0,0.0,80,0.00,,,0.00,WUHU216HW,2013-07-22 11:48:00,
2013-07-22 04:49:00,70.2,63.7,29.93,North,0,0.0,0.0,80,0.00,,,0.00,WUHU216HW,2013-07-22 11:49:00,
2013-07-22 04:52:00,70.2,63.7,29.93,North,0,0.0,0.0,80,0.00,,,0.00,WUHU216HW,2013-07-22 11:52:00,
2013-07-22 04:53:00,70.2,63.7,29.93,North,0,0.0,0.0,80,0.00,,,0.00,WUHU216HW,2013-07-22 11:53:00,
2013-07-22 04:54:00,70.2,63.7,29.93,North,0,0.0,0.0,80,0.00,,,0.00,WUHU216HW,2013-07-22 11:54:00,
2013-07-22 04:55:00,70.0,63.5,29.93,North,0,0.0,0.0,80,0.00,,,0.00,WUHU216HW,2013-07-22 11:55:00,
2013-07-22 04:57:00,70.0,63.5,29.93,North,0,0.0,0.0,80,0.00,,,0.00,WUHU216HW,2013-07-22 11:57:00,
2013-07-22 04:59:00,69.8,63.4,29.93,North,0,0.0,0.0,80,0.00,,,0.00,WUHU216HW,2013-07-22 11:59:00,
2013-07-22 05:00:00,69.8,63.4,29.93,North,0,0.0,0.0,80,0.00,,,0.00,WUHU216HW,2013-07-22 12:00:00,
2013-07-22 05:03:00,69.8,63.4,29.93,North,0,0.0,0.0,80,0.00,,,0.00,WUHU216HW,2013-07-22 12:03:00,
2013-07-22 05:05:00,69.8,63.4,29.93,North,0,0.0,0.0,80,0.00,,,0.00,WUHU216HW,2013-07-22 12:05:00,
2013-07-22 05:06:00,69.8,63.4,29.93,North,0,0.0,0.0,80,0.00,,,0.00,WUHU216HW,2013-07-22 12:06:00,
2013-07-22 05:08:00,69.7,63.6,29.93,North,0,0.0,0.0,81,0.00,,,0.00,WUHU216HW,2013-07-22 12:08:00,
2013-07-22 05:10:00,69.7,63.6,29.93,North,0,0.0,0.0,81,0.00,,,0.00,WUHU216HW,2013-07-22 12:10:00,
2013-07-22 05:11:00,69.7,63.6,29.93,North,0,0.0,0.0,81,0.00,,,0.00,WUHU216HW,2013-07-22 12:11:00,
2013-07-22 05:12:00,69.7,63.6,29.93,North,0,0.0,0.0,81,0.00,,,0.00,WUHU216HW,2013-07-22 12:12:00,
2013-07-22 05:15:00,69.7,63.6,29.93,North,0,0.0,0.0,81,0.00,,,0.00,WUHU216HW,2013-07-22 12:15:00,
2013-07-22 05:16:00,69.7,63.9,29.93,North,0,0.0,0.0,82,0.00,,,0.00,WUHU216HW,2013-07-22 12:16:00,
2013-07-22 05:17:00,69.7,63.9,29.93,North,0,0.0,0.0,82,0.00,,,0.00,WUHU216HW,2013-07-22 12:17:00,
2013-07-22 05:18:00,69.5,63.7,29.93,North,0,0.0,0.0,82,0.00,,,0.00,WUHU216HW,2013-07-22 12:18:00,
2013-07-22 05:20:00,69.5,63.7,29.93,North,0,0.0,0.0,82,0.00,,,0.00,WUHU216HW,2013-07-22 12:20:00,
2013-07-22 05:22:00,69.5,63.7,29.93,North,0,0.0,0.0,82,0.00,,,0.00,WUHU216HW,2013-07-22 12:22:00,
2013-07-22 05:23:00,69.5,63.7,29.93,North,0,0.0,0.0,82,0.00,,,0.00,WUHU216HW,2013-07-22 12:23:00,
2013-07-22 05:24:00,69.3,63.5,29.93,North,0,0.0,0.0,82,0.00,,,0.00,WUHU216HW,2013-07-22 12:24:00,
2013-07-22 05:26:00,69.3,63.5,29.94,North,0,0.0,0.0,82,0.00,,,0.00,WUHU216HW,2013-07-22 12:26:00,
2013-07-22 05:28:00,69.5,63.7,29.94,North,0,0.0,0.0,82,0.00,,,0.00,WUHU216HW,2013-07-22 12:28:00,
2013-07-22 05:29:00,69.3,63.5,29.94,North,0,0.0,0.0,82,0.00,,,0.00,WUHU216HW,2013-07-22 12:29:00,
2013-07-22 05:30:00,69.3,63.5,29.94,North,0,0.0,0.0,82,0.00,,,0.00,WUHU216HW,2013-07-22 12:30:00,
2013-07-22 05:31:00,69.3,63.5,29.93,North,0,0.0,0.0,82,0.00,,,0.00,WUHU216HW,2013-07-22 12:31:00,
2013-07-22 05:34:00,69.3,63.5,29.94,North,0,0.0,0.0,82,0.00,,,0.00,WUHU216HW,2013-07-22 12:34:00,
2013-07-22 05:36:00,69.3,63.5,29.94,North,0,0.0,0.0,82,0.00,,,0.00,WUHU216HW,2013-07-22 12:36:00,
2013-07-22 05:37:00,69.3,63.5,29.94,North,0,0.0,0.0,82,0.00,,,0.00,WUHU216HW,2013-07-22 12:37:00,
2013-07-22 05:38:00,69.3,63.5,29.94,North,0,0.0,0.0,82,0.00,,,0.00,WUHU216HW,2013-07-22 12:38:00,
2013-07-22 05:40:00,69.3,63.5,29.94,North,0,0.0,0.0,82,0.00,,,0.00,WUHU216HW,2013-07-22 12:40:00,
2013-07-22 05:42:00,69.3,63.5,29.94,North,0,0.0,0.0,82,0.00,,,0.00,WUHU216HW,2013-07-22 12:42:00,
2013-07-22 05:43:00,69.3,63.5,29.94,North,0,0.0,0.0,82,0.00,,,0.00,WUHU216HW,2013-07-22 12:43:00,
2013-07-22 05:45:00,69.3,63.5,29.94,North,0,0.0,0.0,82,0.00,,,0.00,WUHU216HW,2013-07-22 12:45:00,
2013-07-22 05:47:00,69.3,63.5,29.94,North,0,0.0,0.0,82,0.00,,,0.00,WUHU216HW,2013-07-22 12:47:00,
2013-07-22 05:49:00,69.3,63.5,29.94,North,0,0.0,0.0,82,0.00,,,0.00,WUHU216HW,2013-07-22 12:49:00,
2013-07-22 05:51:00,69.3,63.5,29.94,North,0,0.0,0.0,82,0.00,,,0.00,WUHU216HW,2013-07-22 12:51:00,
2013-07-22 05:54:00,69.3,63.9,29.94,North,0,0.0,0.0,83,0.00,,,0.00,WUHU216HW,2013-07-22 12:54:00,
2013-07-22 05:55:00,69.3,63.9,29.94,North,0,0.0,0.0,83,0.00,,,0.00,WUHU216HW,2013-07-22 12:55:00,
2013-07-22 05:56:00,69.3,63.9,29.95,North,0,0.0,0.0,83,0.00,,,0.00,WUHU216HW,2013-07-22 12:56:00,
2013-07-22 05:57:00,69.3,63.9,29.95,North,0,0.0,0.0,83,0.00,,,0.00,WUHU216HW,2013-07-22 12:57:00,
2013-07-22 05:59:00,69.1,63.7,29.95,North,0,0.0,0.0,83,0.00,,,0.00,WUHU216HW,2013-07-22 12:59:00,
2013-07-22 06:01:00,69.3,63.5,29.95,North,0,0.0,0.0,82,0.00,,,0.00,WUHU216HW,2013-07-22 13:01:00,
2013-07-22 06:02:00,69.3,63.5,29.95,North,0,0.0,0.0,82,0.00,,,0.00,WUHU216HW,2013-07-22 13:02:00,
2013-07-22 06:06:00,69.3,63.9,29.95,North,0,0.0,0.0,83,0.00,,,0.00,WUHU216HW,2013-07-22 13:06:00,
2013-07-22 06:07:00,69.3,63.9,29.95,North,0,0.0,0.0,83,0.00,,,0.00,WUHU216HW,2013-07-22 13:07:00,
2013-07-22 06:08:00,69.3,63.9,29.95,North,0,0.0,0.0,83,0.00,,,0.00,WUHU216HW,2013-07-22 13:08:00,
2013-07-22 06:12:00,69.3,63.5,29.95,North,0,0.0,0.0,82,0.00,,,0.00,WUHU216HW,2013-07-22 13:12:00,
2013-07-22 06:13:00,69.3,63.5,29.96,North,0,0.0,0.0,82,0.00,,,0.00,WUHU216HW,2013-07-22 13:13:00,
2013-07-22 06:15:00,69.3,63.5,29.96,North,0,0.0,0.0,82,0.00,,,0.00,WUHU216HW,2013-07-22 13:15:00,
2013-07-22 06:17:00,69.5,64.1,29.95,North,0,0.0,0.0,83,0.00,,,0.00,WUHU216HW,2013-07-22 13:17:00,
2013-07-22 06:19:00,69.5,64.1,29.96,North,0,0.0,0.0,83,0.00,,,0.00,WUHU216HW,2013-07-22 13:19:00,
2013-07-22 06:20:00,69.5,64.1,29.96,North,0,0.0,0.0,83,0.00,,,0.00,WUHU216HW,2013-07-22 13:20:00,
2013-07-22 06:21:00,69.5,64.1,29.96,North,0,0.0,0.0,83,0.00,,,0.00,WUHU216HW,2013-07-22 13:21:00,
2013-07-22 06:22:00,69.5,64.1,29.96,North,0,0.0,0.0,83,0.00,,,0.00,WUHU216HW,2013-07-22 13:22:00,
2013-07-22 06:24:00,69.5,64.1,29.96,North,0,0.0,0.0,83,0.00,,,0.00,WUHU216HW,2013-07-22 13:24:00,
2013-07-22 06:25:00,69.5,64.1,29.96,North,0,0.0,0.0,83,0.00,,,0.00,WUHU216HW,2013-07-22 13:25:00,
2013-07-22 06:27:00,69.5,63.7,29.96,North,0,0.0,0.0,82,0.00,,,0.00,WUHU216HW,2013-07-22 13:27:00,
2013-07-22 06:28:00,69.5,64.1,29.96,North,0,0.0,0.0,83,0.00,,,0.00,WUHU216HW,2013-07-22 13:28:00,
2013-07-22 06:30:00,69.5,64.1,29.96,North,0,0.0,0.0,83,0.00,,,0.00,WUHU216HW,2013-07-22 13:30:00,
2013-07-22 06:31:00,69.5,64.1,29.96,North,0,0.0,0.0,83,0.00,,,0.00,WUHU216HW,2013-07-22 13:31:00,
2013-07-22 06:33:00,69.5,64.1,29.96,North,0,0.0,0.0,83,0.00,,,0.00,WUHU216HW,2013-07-22 13:33:00,
2013-07-22 06:34:00,69.5,64.1,29.96,North,0,0.0,0.0,83,0.00,,,0.00,WUHU216HW,2013-07-22 13:34:00,
2013-07-22 06:35:00,69.5,64.1,29.96,North,0,0.0,0.0,83,0.00,,,0.00,WUHU216HW,2013-07-22 13:35:00,
2013-07-22 06:36:00,69.5,64.1,29.96,North,0,0.0,0.0,83,0.00,,,0.00,WUHU216HW,2013-07-22 13:36:00,
2013-07-22 06:39:00,69.5,64.1,29.96,North,0,0.0,0.0,83,0.00,,,0.00,WUHU216HW,2013-07-22 13:39:00,
2013-07-22 06:40:00,69.5,64.1,29.96,North,0,0.0,0.0,83,0.00,,,0.00,WUHU216HW,2013-07-22 13:40:00,
2013-07-22 06:41:00,69.7,63.9,29.96,North,0,0.0,0.0,82,0.00,,,0.00,WUHU216HW,2013-07-22 13:41:00,
2013-07-22 06:43:00,69.7,64.3,29.96,North,0,0.0,0.0,83,0.00,,,0.00,WUHU216HW,2013-07-22 13:43:00,
2013-07-22 06:45:00,69.7,64.3,29.96,North,0,0.0,0.0,83,0.00,,,0.00,WUHU216HW,2013-07-22 13:45:00,
2013-07-22 06:47:00,69.7,64.3,29.97,North,0,0.0,0.0,83,0.00,,,0.00,WUHU216HW,2013-07-22 13:47:00,
2013-07-22 06:48:00,69.7,64.3,29.97,North,0,0.0,0.0,83,0.00,,,0.00,WUHU216HW,2013-07-22 13:48:00,
2013-07-22 06:49:00,69.7,64.3,29.97,North,0,0.0,0.0,83,0.00,,,0.00,WUHU216HW,2013-07-22 13:49:00,
2013-07-22 06:51:00,69.7,64.3,29.97,North,0,0.0,0.0,83,0.00,,,0.00,WUHU216HW,2013-07-22 13:51:00,
2013-07-22 06:52:00,69.8,64.4,29.97,North,0,0.0,0.0,83,0.00,,,0.00,WUHU216HW,2013-07-22 13:52:00,
2013-07-22 06:55:00,69.8,64.4,29.97,North,0,0.0,0.0,83,0.00,,,0.00,WUHU216HW,2013-07-22 13:55:00,
2013-07-22 06:56:00,69.8,64.4,29.97,North,0,0.0,0.0,83,0.00,,,0.00,WUHU216HW,2013-07-22 13:56:00,
2013-07-22 06:57:00,70.0,64.5,29.97,North,0,0.0,0.0,83,0.00,,,0.00,WUHU216HW,2013-07-22 13:57:00,
2013-07-22 06:58:00,70.0,64.5,29.97,North,0,0.0,0.0,83,0.00,,,0.00,WUHU216HW,2013-07-22 13:58:00,
2013-07-22 07:01:00,70.2,64.7,29.97,North,0,0.0,0.0,83,0.00,,,0.00,WUHU216HW,2013-07-22 14:01:00,
2013-07-22 07:02:00,70.2,64.7,29.97,North,0,0.0,0.0,83,0.00,,,0.00,WUHU216HW,2013-07-22 14:02:00,
2013-07-22 07:03:00,70.2,64.7,29.97,North,0,0.0,0.0,83,0.00,,,0.00,WUHU216HW,2013-07-22 14:03:00,
2013-07-22 07:06:00,70.4,64.9,29.97,North,0,0.0,0.0,83,0.00,,,0.00,WUHU216HW,2013-07-22 14:06:00,
2013-07-22 07:07:00,70.4,64.6,29.97,North,0,0.0,0.0,82,0.00,,,0.00,WUHU216HW,2013-07-22 14:07:00,
2013-07-22 07:08:00,70.6,65.1,29.97,North,0,0.0,0.0,83,0.00,,,0.00,WUHU216HW,2013-07-22 14:08:00,
2013-07-22 07:11:00,70.7,65.3,29.97,North,0,0.0,0.0,83,0.00,,,0.00,WUHU216HW,2013-07-22 14:11:00,
2013-07-22 07:13:00,70.7,65.3,29.97,North,0,0.0,0.0,83,0.00,,,0.00,WUHU216HW,2013-07-22 14:13:00,
2013-07-22 07:14:00,70.9,65.4,29.97,North,0,0.0,0.0,83,0.00,,,0.00,WUHU216HW,2013-07-22 14:14:00,
2013-07-22 07:16:00,71.1,65.6,29.98,North,0,0.0,0.0,83,0.00,,,0.00,WUHU216HW,2013-07-22 14:16:00,
2013-07-22 07:17:00,71.1,65.6,29.98,North,0,0.0,0.0,83,0.00,,,0.00,WUHU216HW,2013-07-22 14:17:00,
2013-07-22 07:19:00,71.5,65.7,29.98,North,0,0.0,0.0,82,0.00,,,0.00,WUHU216HW,2013-07-22 14:19:00,
2013-07-22 07:20:00,71.5,65.7,29.98,North,0,0.0,0.0,82,0.00,,,0.00,WUHU216HW,2013-07-22 14:20:00,
2013-07-22 07:22:00,71.6,65.9,29.98,North,0,0.0,0.0,82,0.00,,,0.00,WUHU216HW,2013-07-22 14:22:00,
2013-07-22 07:23:00,71.6,65.9,29.98,North,0,0.0,0.0,82,0.00,,,0.00,WUHU216HW,2013-07-22 14:23:00,
2013-07-22 07:24:00,71.8,66.1,29.98,North,0,0.0,0.0,82,0.00,,,0.00,WUHU216HW,2013-07-22 14:24:00,
2013-07-22 07:25:00,71.8,66.1,29.98,North,0,0.0,0.0,82,0.00,,,0.00,WUHU216HW,2013-07-22 14:25:00,
2013-07-22 07:26:00,72.0,66.3,29.98,North,0,0.0,0.0,82,0.00,,,0.00,WUHU216HW,2013-07-22 14:26:00,
2013-07-22 07:28:00,72.4,66.6,29.98,North,0,0.0,0.0,82,0.00,,,0.00,WUHU216HW,2013-07-22 14:28:00,
2013-07-22 07:29:00,72.4,66.3,29.98,North,0,0.0,0.0,81,0.00,,,0.00,WUHU216HW,2013-07-22 14:29:00,
2013-07-22 07:30:00,72.5,66.4,29.98,North,0,0.0,0.0,81,0.00,,,0.00,WUHU216HW,2013-07-22 14:30:00,
2013-07-22 07:31:00,73.1,67.0,29.98,North,0,0.0,0.0,81,0.00,,,0.00,WUHU216HW,2013-07-22 14:31:00,
2013-07-22 07:34:00,73.4,67.3,29.98,North,0,0.0,0.0,81,0.00,,,0.00,WUHU216HW,2013-07-22 14:34:00,
2013-07-22 07:35:00,73.8,67.0,29.98,North,0,0.0,0.0,79,0.00,,,0.00,WUHU216HW,2013-07-22 14:35:00,
2013-07-22 07:36:00,73.8,67.0,29.98,North,0,0.0,0.0,79,0.00,,,0.00,WUHU216HW,2013-07-22 14:36:00,
2013-07-22 07:37:00,74.3,67.5,29.98,North,0,0.0,0.0,79,0.00,,,0.00,WUHU216HW,2013-07-22 14:37:00,
2013-07-22 07:40:00,74.9,67.6,29.98,North,0,0.0,0.0,78,0.00,,,0.00,WUHU216HW,2013-07-22 14:40:00,
2013-07-22 07:41:00,74.9,67.6,29.98,North,0,0.0,0.0,78,0.00,,,0.00,WUHU216HW,2013-07-22 14:41:00,
2013-07-22 07:43:00,75.4,67.3,29.98,North,0,0.0,0.0,76,0.00,,,0.00,WUHU216HW,2013-07-22 14:43:00,
2013-07-22 07:45:00,75.8,66.9,29.98,North,0,0.0,0.0,74,0.00,,,0.00,WUHU216HW,2013-07-22 14:45:00,
2013-07-22 07:46:00,75.8,66.9,29.98,North,0,0.0,0.0,74,0.00,,,0.00,WUHU216HW,2013-07-22 14:46:00,
2013-07-22 07:47:00,76.0,67.1,29.98,North,0,0.0,0.0,74,0.00,,,0.00,WUHU216HW,2013-07-22 14:47:00,
2013-07-22 07:48:00,76.0,67.1,29.98,North,0,0.0,0.0,74,0.00,,,0.00,WUHU216HW,2013-07-22 14:48:00,
2013-07-22 07:51:00,76.1,66.9,29.98,North,0,0.0,0.0,73,0.00,,,0.00,WUHU216HW,2013-07-22 14:51:00,
2013-07-22 07:52:00,76.3,67.1,29.99,North,0,0.0,0.0,73,0.00,,,0.00,WUHU216HW,2013-07-22 14:52:00,
2013-07-22 07:53:00,76.3,67.1,29.99,North,0,0.0,0.0,73,0.00,,,0.00,WUHU216HW,2013-07-22 14:53:00,
2013-07-22 07:55:00,76.3,67.1,29.99,North,0,0.0,0.0,73,0.00,,,0.00,WUHU216HW,2013-07-22 14:55:00,
2013-07-22 07:56:00,76.3,67.1,29.99,North,0,0.0,0.0,73,0.00,,,0.00,WUHU216HW,2013-07-22 14:56:00,
2013-07-22 07:57:00,76.5,67.2,29.99,North,0,0.0,0.0,73,0.00,,,0.00,WUHU216HW,2013-07-22 14:57:00,
2013-07-22 07:58:00,76.5,66.9,29.99,North,0,0.0,0.0,72,0.00,,,0.00,WUHU216HW,2013-07-22 14:58:00,
2013-07-22 07:59:00,76.7,67.0,29.99,North,0,0.0,0.0,72,0.00,,,0.00,WUHU216HW,2013-07-22 14:59:00,
2013-07-22 08:00:00,76.7,66.6,29.99,North,0,0.0,0.0,71,0.00,,,0.00,WUHU216HW,2013-07-22 15:00:00,
2013-07-22 08:02:00,76.7,66.6,29.99,North,0,0.0,0.0,71,0.00,,,0.00,WUHU216HW,2013-07-22 15:02:00,
2013-07-22 08:03:00,76.7,66.6,29.99,North,0,0.0,0.0,71,0.00,,,0.00,WUHU216HW,2013-07-22 15:03:00,
2013-07-22 08:05:00,76.7,66.6,29.99,North,0,0.0,0.0,71,0.00,,,0.00,WUHU216HW,2013-07-22 15:05:00,
2013-07-22 08:07:00,76.7,66.6,29.99,North,0,0.0,0.0,71,0.00,,,0.00,WUHU216HW,2013-07-22 15:07:00,
2013-07-22 08:09:00,76.7,66.6,29.99,North,0,0.0,0.0,71,0.00,,,0.00,WUHU216HW,2013-07-22 15:09:00,
2013-07-22 08:10:00,76.7,66.6,29.99,North,0,0.0,0.0,71,0.00,,,0.00,WUHU216HW,2013-07-22 15:10:00,
2013-07-22 08:12:00,76.7,66.6,29.99,North,0,0.0,0.0,71,0.00,,,0.00,WUHU216HW,2013-07-22 15:12:00,
2013-07-22 08:14:00,77.2,67.1,29.98,North,0,0.0,0.0,71,0.00,,,0.00,WUHU216HW,2013-07-22 15:14:00,
2013-07-22 08:15:00,77.2,67.1,29.98,North,0,0.0,0.0,71,0.00,,,0.00,WUHU216HW,2013-07-22 15:15:00,
2013-07-22 08:16:00,77.4,67.3,29.98,North,0,0.0,0.0,71,0.00,,,0.00,WUHU216HW,2013-07-22 15:16:00,
2013-07-22 08:17:00,77.4,67.3,29.99,North,0,0.0,0.0,71,0.00,,,0.00,WUHU216HW,2013-07-22 15:17:00,
2013-07-22 08:19:00,77.8,67.2,29.98,North,0,0.0,0.0,70,0.00,,,0.00,WUHU216HW,2013-07-22 15:19:00,
2013-07-22 08:20:00,77.8,67.2,29.99,North,0,0.0,0.0,70,0.00,,,0.00,WUHU216HW,2013-07-22 15:20:00,
2013-07-22 08:21:00,77.8,67.2,29.99,North,0,0.0,0.0,70,0.00,,,0.00,WUHU216HW,2013-07-22 15:21:00,
2013-07-22 08:23:00,77.8,67.2,29.99,North,0,0.0,0.0,70,0.00,,,0.00,WUHU216HW,2013-07-22 15:23:00,
2013-07-22 08:25:00,77.8,66.8,29.99,North,0,0.0,0.0,69,0.00,,,0.00,WUHU216HW,2013-07-22 15:25:00,
2013-07-22 08:26:00,77.8,66.8,29.99,North,0,0.0,0.0,69,0.00,,,0.00,WUHU216HW,2013-07-22 15:26:00,
2013-07-22 08:29:00,77.9,66.5,29.99,North,0,0.0,0.0,68,0.00,,,0.00,WUHU216HW,2013-07-22 15:29:00,
2013-07-22 08:31:00,77.9,66.5,29.99,North,0,0.0,0.0,68,0.00,,,0.00,WUHU216HW,2013-07-22 15:31:00,
2013-07-22 08:32:00,77.9,67.0,29.99,North,0,0.0,0.0,69,0.00,,,0.00,WUHU216HW,2013-07-22 15:32:00,
2013-07-22 08:34:00,78.1,66.2,29.99,North,0,0.0,0.0,67,0.00,,,0.00,WUHU216HW,2013-07-22 15:34:00,
2013-07-22 08:37:00,78.3,66.0,29.99,North,0,0.0,0.0,66,0.00,,,0.00,WUHU216HW,2013-07-22 15:37:00,
2013-07-22 08:38:00,78.3,66.4,29.99,North,0,0.0,0.0,67,0.00,,,0.00,WUHU216HW,2013-07-22 15:38:00,
2013-07-22 08:39:00,78.5,66.2,29.99,North,0,0.0,0.0,66,0.00,,,0.00,WUHU216HW,2013-07-22 15:39:00,
2013-07-22 08:42:00,78.7,66.3,29.99,North,0,0.0,0.0,66,0.00,,,0.00,WUHU216HW,2013-07-22 15:42:00,
2013-07-22 08:43:00,78.7,66.3,29.99,North,0,0.0,0.0,66,0.00,,,0.00,WUHU216HW,2013-07-22 15:43:00,
2013-07-22 08:46:00,79.0,66.7,29.99,North,0,0.0,0.0,66,0.00,,,0.00,WUHU216HW,2013-07-22 15:46:00,
2013-07-22 08:47:00,79.2,66.9,29.98,North,0,0.0,0.0,66,0.00,,,0.00,WUHU216HW,2013-07-22 15:47:00,
2013-07-22 08:49:00,79.4,66.6,29.98,North,0,0.0,0.0,65,0.00,,,0.00,WUHU216HW,2013-07-22 15:49:00,
2013-07-22 08:50:00,79.6,67.1,29.98,North,0,0.0,0.0,66,0.00,,,0.00,WUHU216HW,2013-07-22 15:50:00,
2013-07-22 08:51:00,79.6,67.1,29.98,North,0,0.0,0.0,66,0.00,,,0.00,WUHU216HW,2013-07-22 15:51:00,
2013-07-22 08:53:00,79.9,67.1,29.98,North,0,0.0,0.0,65,0.00,,,0.00,WUHU216HW,2013-07-22 15:53:00,
2013-07-22 08:54:00,80.1,66.8,29.98,North,0,0.0,0.0,64,0.00,,,0.00,WUHU216HW,2013-07-22 15:54:00,
2013-07-22 08:55:00,80.3,66.5,29.99,North,0,0.0,0.0,63,0.00,,,0.00,WUHU216HW,2013-07-22 15:55:00,
2013-07-22 08:56:00,80.3,66.1,29.99,North,0,0.0,0.0,62,0.00,,,0.00,WUHU216HW,2013-07-22 15:56:00,
2013-07-22 08:57:00,80.3,66.1,29.99,North,0,0.0,0.0,62,0.00,,,0.00,WUHU216HW,2013-07-22 15:57:00,
2013-07-22 08:58:00,80.3,66.1,29.99,North,0,0.0,0.0,62,0.00,,,0.00,WUHU216HW,2013-07-22 15:58:00,
2013-07-22 08:59:00,80.3,66.1,29.98,North,0,0.0,0.0,62,0.00,,,0.00,WUHU216HW,2013-07-22 15:59:00,
2013-07-22 09:00:00,80.3,66.5,29.98,North,0,0.0,0.0,63,0.00,,,0.00,WUHU216HW,2013-07-22 16:00:00,
2013-07-22 09:02:00,80.3,66.5,29.98,North,0,0.0,0.0,63,0.00,,,0.00,WUHU216HW,2013-07-22 16:02:00,
2013-07-22 09:03:00,80.3,66.5,29.99,North,0,0.0,0.0,63,0.00,,,0.00,WUHU216HW,2013-07-22 16:03:00,
2013-07-22 09:06:00,80.3,66.5,29.99,North,0,0.0,0.0,63,0.00,,,0.00,WUHU216HW,2013-07-22 16:06:00,
2013-07-22 09:07:00,80.3,66.5,29.99,North,0,0.0,0.0,63,0.00,,,0.00,WUHU216HW,2013-07-22 16:07:00,
2013-07-22 09:11:00,80.6,66.4,29.99,North,0,0.0,0.0,62,0.00,,,0.00,WUHU216HW,2013-07-22 16:11:00,
2013-07-22 09:12:00,80.5,66.7,29.99,North,0,0.0,0.0,63,0.00,,,0.00,WUHU216HW,2013-07-22 16:12:00,
2013-07-22 09:13:00,80.6,66.4,29.99,North,0,0.0,0.0,62,0.00,,,0.00,WUHU216HW,2013-07-22 16:13:00,
2013-07-22 09:16:00,80.6,66.4,29.99,North,0,0.0,0.0,62,0.00,,,0.00,WUHU216HW,2013-07-22 16:16:00,
2013-07-22 09:17:00,80.5,65.8,29.99,North,0,0.0,0.0,61,0.00,,,0.00,WUHU216HW,2013-07-22 16:17:00,
2013-07-22 09:18:00,80.6,66.4,29.99,North,0,0.0,0.0,62,0.00,,,0.00,WUHU216HW,2013-07-22 16:18:00,
2013-07-22 09:21:00,80.6,65.0,29.99,North,0,0.0,0.0,59,0.00,,,0.00,WUHU216HW,2013-07-22 16:21:00,
2013-07-22 09:22:00,80.6,65.0,29.99,North,0,0.0,0.0,59,0.00,,,0.00,WUHU216HW,2013-07-22 16:22:00,
2013-07-22 09:23:00,80.6,65.0,29.99,North,0,0.0,0.0,59,0.00,,,0.00,WUHU216HW,2013-07-22 16:23:00,
2013-07-22 09:26:00,80.6,65.5,29.99,North,0,0.0,0.0,60,0.00,,,0.00,WUHU216HW,2013-07-22 16:26:00,
2013-07-22 09:27:00,80.5,65.3,29.99,North,0,0.0,0.0,60,0.00,,,0.00,WUHU216HW,2013-07-22 16:27:00,
2013-07-22 09:28:00,80.6,65.0,29.99,North,0,0.0,0.0,59,0.00,,,0.00,WUHU216HW,2013-07-22 16:28:00,
2013-07-22 09:29:00,80.6,65.0,29.99,North,0,0.0,0.0,59,0.00,,,0.00,WUHU216HW,2013-07-22 16:29:00,
2013-07-22 09:33:00,80.5,64.8,29.99,North,0,0.0,0.0,59,0.00,,,0.00,WUHU216HW,2013-07-22 16:33:00,
2013-07-22 09:34:00,80.5,65.3,29.99,North,0,0.0,0.0,60,0.00,,,0.00,WUHU216HW,2013-07-22 16:34:00,
2013-07-22 09:35:00,80.3,65.2,29.99,North,0,0.0,0.0,60,0.00,,,0.00,WUHU216HW,2013-07-22 16:35:00,
2013-07-22 09:38:00,80.3,65.2,29.99,North,0,0.0,0.0,60,0.00,,,0.00,WUHU216HW,2013-07-22 16:38:00,
2013-07-22 09:39:00,80.3,65.2,29.99,North,0,0.0,0.0,60,0.00,,,0.00,WUHU216HW,2013-07-22 16:39:00,
2013-07-22 09:40:00,80.3,65.6,29.99,North,0,0.0,0.0,61,0.00,,,0.00,WUHU216HW,2013-07-22 16:40:00,
2013-07-22 09:41:00,80.3,65.6,29.99,North,0,0.0,0.0,61,0.00,,,0.00,WUHU216HW,2013-07-22 16:41:00,
2013-07-22 09:45:00,80.3,65.6,29.99,North,0,0.0,0.0,61,0.00,,,0.00,WUHU216HW,2013-07-22 16:45:00,
2013-07-22 09:46:00,80.5,65.8,29.99,North,0,0.0,0.0,61,0.00,,,0.00,WUHU216HW,2013-07-22 16:46:00,
2013-07-22 09:50:00,80.6,65.5,29.99,North,0,0.0,0.0,60,0.00,,,0.00,WUHU216HW,2013-07-22 16:50:00,
2013-07-22 09:51:00,80.6,65.5,29.99,North,0,0.0,0.0,60,0.00,,,0.00,WUHU216HW,2013-07-22 16:51:00,
2013-07-22 09:53:00,80.6,65.5,29.99,North,0,0.0,0.0,60,0.00,,,0.00,WUHU216HW,2013-07-22 16:53:00,
2013-07-22 09:56:00,81.0,65.9,29.99,North,0,0.0,0.0,60,0.00,,,0.00,WUHU216HW,2013-07-22 16:56:00,
2013-07-22 09:57:00,81.0,65.9,29.99,North,0,0.0,0.0,60,0.00,,,0.00,WUHU216HW,2013-07-22 16:57:00,
2013-07-22 09:58:00,81.0,65.9,29.99,North,0,0.0,0.0,60,0.00,,,0.00,WUHU216HW,2013-07-22 16:58:00,
2013-07-22 09:59:00,81.2,66.0,29.99,North,0,0.0,0.0,60,0.00,,,0.00,WUHU216HW,2013-07-22 16:59:00,
2013-07-22 10:01:00,81.5,66.8,29.99,North,0,0.0,0.0,61,0.00,,,0.00,WUHU216HW,2013-07-22 17:01:00,
2013-07-22 10:02:00,81.7,67.0,29.99,North,0,0.0,0.0,61,0.00,,,0.00,WUHU216HW,2013-07-22 17:02:00,
2013-07-22 10:03:00,81.9,66.7,29.99,North,0,0.0,0.0,60,0.00,,,0.00,WUHU216HW,2013-07-22 17:03:00,
2013-07-22 10:05:00,82.4,66.6,29.99,North,0,0.0,0.0,59,0.00,,,0.00,WUHU216HW,2013-07-22 17:05:00,
2013-07-22 10:07:00,82.6,66.2,29.99,North,0,0.0,0.0,58,0.00,,,0.00,WUHU216HW,2013-07-22 17:07:00,
2013-07-22 10:08:00,82.6,65.8,29.99,North,0,0.0,0.0,57,0.00,,,0.00,WUHU216HW,2013-07-22 17:08:00,
2013-07-22 10:09:00,82.6,65.8,29.99,North,0,0.0,0.0,57,0.00,,,0.00,WUHU216HW,2013-07-22 17:09:00,
2013-07-22 10:10:00,82.4,66.1,29.98,North,0,0.0,0.0,58,0.00,,,0.00,WUHU216HW,2013-07-22 17:10:00,
2013-07-22 10:14:00,82.4,66.1,29.99,North,0,0.0,0.0,58,0.00,,,0.00,WUHU216HW,2013-07-22 17:14:00,
2013-07-22 10:15:00,82.4,66.1,29.99,North,0,0.0,0.0,58,0.00,,,0.00,WUHU216HW,2013-07-22 17:15:00,
2013-07-22 10:19:00,82.4,66.1,29.99,North,0,0.0,0.0,58,0.00,,,0.00,WUHU216HW,2013-07-22 17:19:00,
2013-07-22 10:20:00,82.4,66.1,29.99,North,0,0.0,0.0,58,0.00,,,0.00,WUHU216HW,2013-07-22 17:20:00,
2013-07-22 10:21:00,82.4,66.1,29.99,North,0,0.0,0.0,58,0.00,,,0.00,WUHU216HW,2013-07-22 17:21:00,
2013-07-22 10:25:00,82.8,66.4,29.98,North,0,0.0,0.0,58,0.00,,,0.00,WUHU216HW,2013-07-22 17:25:00,
2013-07-22 10:26:00,83.0,66.2,29.98,North,0,0.0,0.0,57,0.00,,,0.00,WUHU216HW,2013-07-22 17:26:00,
2013-07-22 10:27:00,83.0,66.2,29.98,North,0,0.0,0.0,57,0.00,,,0.00,WUHU216HW,2013-07-22 17:27:00,
2013-07-22 10:30:00,83.0,65.6,29.98,North,0,0.0,0.0,56,0.00,,,0.00,WUHU216HW,2013-07-22 17:30:00,
2013-07-22 10:31:00,83.0,65.6,29.98,North,0,0.0,0.0,56,0.00,,,0.00,WUHU216HW,2013-07-22 17:31:00,
2013-07-22 10:32:00,82.8,65.4,29.98,North,0,0.0,0.0,56,0.00,,,0.00,WUHU216HW,2013-07-22 17:32:00,
2013-07-22 10:37:00,82.8,66.0,29.98,North,0,0.0,0.0,57,0.00,,,0.00,WUHU216HW,2013-07-22 17:37:00,
2013-07-22 10:38:00,83.0,65.6,29.98,North,0,0.0,0.0,56,0.00,,,0.00,WUHU216HW,2013-07-22 17:38:00,
2013-07-22 10:40:00,83.0,65.6,29.98,North,0,0.0,0.0,56,0.00,,,0.00,WUHU216HW,2013-07-22 17:40:00,
2013-07-22 10:42:00,83.2,66.3,29.98,North,0,0.0,0.0,57,0.00,,,0.00,WUHU216HW,2013-07-22 17:42:00,
2013-07-22 10:43:00,83.2,66.3,29.98,North,0,0.0,0.0,57,0.00,,,0.00,WUHU216HW,2013-07-22 17:43:00,
2013-07-22 10:44:00,83.3,66.5,29.98,North,0,0.0,0.0,57,0.00,,,0.00,WUHU216HW,2013-07-22 17:44:00,
2013-07-22 10:45:00,83.5,65.6,29.98,North,0,0.0,0.0,55,0.00,,,0.00,WUHU216HW,2013-07-22 17:45:00,
2013-07-22 10:47:00,83.5,66.7,29.98,North,0,0.0,0.0,57,0.00,,,0.00,WUHU216HW,2013-07-22 17:47:00,
2013-07-22 10:48:00,83.5,66.7,29.98,North,0,0.0,0.0,57,0.00,,,0.00,WUHU216HW,2013-07-22 17:48:00,
2013-07-22 10:49:00,83.5,66.7,29.98,North,0,0.0,0.0,57,0.00,,,0.00,WUHU216HW,2013-07-22 17:49:00,
2013-07-22 10:50:00,83.5,66.7,29.98,North,0,0.0,0.0,57,0.00,,,0.00,WUHU216HW,2013-07-22 17:50:00,
2013-07-22 10:53:00,83.7,65.8,29.97,North,0,0.0,0.0,55,0.00,,,0.00,WUHU216HW,2013-07-22 17:53:00,
2013-07-22 10:55:00,83.9,66.0,29.98,North,0,0.0,0.0,55,0.00,,,0.00,WUHU216HW,2013-07-22 17:55:00,
2013-07-22 10:56:00,83.9,66.0,29.98,North,0,0.0,0.0,55,0.00,,,0.00,WUHU216HW,2013-07-22 17:56:00,
2013-07-22 10:59:00,83.9,66.0,29.98,North,0,0.0,0.0,55,0.00,,,0.00,WUHU216HW,2013-07-22 17:59:00,
2013-07-22 11:00:00,83.9,65.4,29.98,North,0,0.0,0.0,54,0.00,,,0.00,WUHU216HW,2013-07-22 18:00:00,
2013-07-22 11:01:00,83.9,66.0,29.98,North,0,0.0,0.0,55,0.00,,,0.00,WUHU216HW,2013-07-22 18:01:00,
2013-07-22 11:05:00,84.2,67.4,29.98,North,0,0.0,0.0,57,0.00,,,0.00,WUHU216HW,2013-07-22 18:05:00,
2013-07-22 11:06:00,84.4,67.5,29.98,North,0,0.0,0.0,57,0.00,,,0.00,WUHU216HW,2013-07-22 18:06:00,
2013-07-22 11:07:00,84.4,67.5,29.98,North,0,0.0,0.0,57,0.00,,,0.00,WUHU216HW,2013-07-22 18:07:00,
2013-07-22 11:12:00,85.0,67.0,29.98,North,0,0.0,0.0,55,0.00,,,0.00,WUHU216HW,2013-07-22 18:12:00,
2013-07-22 11:14:00,85.0,67.0,29.98,North,0,0.0,0.0,55,0.00,,,0.00,WUHU216HW,2013-07-22 18:14:00,
2013-07-22 11:17:00,85.3,67.3,29.98,North,0,0.0,0.0,55,0.00,,,0.00,WUHU216HW,2013-07-22 18:17:00,
2013-07-22 11:18:00,85.3,67.3,29.98,North,0,0.0,0.0,55,0.00,,,0.00,WUHU216HW,2013-07-22 18:18:00,
2013-07-22 11:19:00,85.5,67.0,29.98,North,0,0.0,0.0,54,0.00,,,0.00,WUHU216HW,2013-07-22 18:19:00,
2013-07-22 11:23:00,85.7,66.6,29.98,North,0,0.0,0.0,53,0.00,,,0.00,WUHU216HW,2013-07-22 18:23:00,
2013-07-22 11:24:00,85.7,66.6,29.98,North,0,0.0,0.0,53,0.00,,,0.00,WUHU216HW,2013-07-22 18:24:00,
2013-07-22 11:26:00,85.7,67.2,29.98,North,0,0.0,0.0,54,0.00,,,0.00,WUHU216HW,2013-07-22 18:26:00,
2013-07-22 11:28:00,85.7,67.2,29.98,North,0,0.0,0.0,54,0.00,,,0.00,WUHU216HW,2013-07-22 18:28:00,
2013-07-22 11:30:00,85.7,66.6,29.98,North,0,0.0,0.0,53,0.00,,,0.00,WUHU216HW,2013-07-22 18:30:00,
2013-07-22 11:31:00,85.7,66.6,29.98,North,0,0.0,0.0,53,0.00,,,0.00,WUHU216HW,2013-07-22 18:31:00,
2013-07-22 11:34:00,85.7,66.6,29.98,North,0,0.0,0.0,53,0.00,,,0.00,WUHU216HW,2013-07-22 18:34:00,
2013-07-22 11:36:00,85.7,67.2,29.98,North,0,0.0,0.0,54,0.00,,,0.00,WUHU216HW,2013-07-22 18:36:00,
2013-07-22 11:38:00,85.9,66.8,29.98,North,0,0.0,0.0,53,0.00,,,0.00,WUHU216HW,2013-07-22 18:38:00,
2013-07-22 11:41:00,85.9,66.8,29.98,North,0,0.0,0.0,53,0.00,,,0.00,WUHU216HW,2013-07-22 18:41:00,
2013-07-22 11:42:00,85.9,66.8,29.98,North,0,0.0,0.0,53,0.00,,,0.00,WUHU216HW,2013-07-22 18:42:00,
2013-07-22 11:46:00,85.9,66.8,29.97,North,0,0.0,0.0,53,0.00,,,0.00,WUHU216HW,2013-07-22 18:46:00,
2013-07-22 11:47:00,85.9,66.8,29.97,North,0,0.0,0.0,53,0.00,,,0.00,WUHU216HW,2013-07-22 18:47:00,
2013-07-22 11:48:00,85.9,66.8,29.97,North,0,0.0,0.0,53,0.00,,,0.00,WUHU216HW,2013-07-22 18:48:00,
2013-07-22 11:52:00,86.0,66.9,29.97,North,0,0.0,0.0,53,0.00,,,0.00,WUHU216HW,2013-07-22 18:52:00,
2013-07-22 11:53:00,86.2,67.1,29.97,North,0,0.0,0.0,53,0.00,,,0.00,WUHU216HW,2013-07-22 18:53:00,
2013-07-22 11:55:00,86.2,67.1,29.97,North,0,0.0,0.0,53,0.00,,,0.00,WUHU216HW,2013-07-22 18:55:00,
2013-07-22 11:57:00,86.2,67.1,29.96,North,0,0.0,0.0,53,0.00,,,0.00,WUHU216HW,2013-07-22 18:57:00,
2013-07-22 11:58:00,86.4,67.2,29.96,North,0,0.0,0.0,53,0.00,,,0.00,WUHU216HW,2013-07-22 18:58:00,
2013-07-22 11:59:00,86.4,66.7,29.97,North,0,0.0,0.0,52,0.00,,,0.00,WUHU216HW,2013-07-22 18:59:00,
2013-07-22 12:00:00,86.6,66.9,29.96,North,0,0.0,0.0,52,0.00,,,0.00,WUHU216HW,2013-07-22 19:00:00,
2013-07-22 12:03:00,86.8,66.5,29.96,North,0,0.0,0.0,51,0.00,,,0.00,WUHU216HW,2013-07-22 19:03:00,
2013-07-22 12:04:00,86.8,66.5,29.96,North,0,0.0,0.0,51,0.00,,,0.00,WUHU216HW,2013-07-22 19:04:00,
2013-07-22 12:06:00,86.9,66.7,29.96,North,0,0.0,0.0,51,0.00,,,0.00,WUHU216HW,2013-07-22 19:06:00,
2013-07-22 12:09:00,87.3,67.1,29.96,North,0,0.0,0.0,51,0.00,,,0.00,WUHU216HW,2013-07-22 19:09:00,
2013-07-22 12:11:00,87.5,67.1,29.96,North,0,0.0,0.0,51,0.00,,,0.00,WUHU216HW,2013-07-22 19:11:00,
2013-07-22 12:14:00,87.8,67.0,29.96,North,0,0.0,0.0,50,0.00,,,0.00,WUHU216HW,2013-07-22 19:14:00,
2013-07-22 12:16:00,87.8,66.3,29.96,North,0,0.0,0.0,49,0.00,,,0.00,WUHU216HW,2013-07-22 19:16:00,
2013-07-22 12:17:00,87.7,66.8,29.96,North,0,0.0,0.0,50,0.00,,,0.00,WUHU216HW,2013-07-22 19:17:00,
2013-07-22 12:20:00,87.7,66.8,29.96,North,0,0.0,0.0,50,0.00,,,0.00,WUHU216HW,2013-07-22 19:20:00,
2013-07-22 12:21:00,87.7,66.8,29.96,North,0,0.0,0.0,50,0.00,,,0.00,WUHU216HW,2013-07-22 19:21:00,
2013-07-22 12:22:00,87.7,66.8,29.96,North,0,0.0,0.0,50,0.00,,,0.00,WUHU216HW,2013-07-22 19:22:00,
2013-07-22 12:23:00,87.5,67.1,29.96,North,0,0.0,0.0,51,0.00,,,0.00,WUHU216HW,2013-07-22 19:23:00,
2013-07-22 12:25:00,87.5,67.1,29.96,North,0,0.0,0.0,51,0.00,,,0.00,WUHU216HW,2013-07-22 19:25:00,
2013-07-22 12:27:00,87.7,66.8,29.96,North,0,0.0,0.0,50,0.00,,,0.00,WUHU216HW,2013-07-22 19:27:00,
2013-07-22 12:29:00,87.5,66.0,29.96,North,0,0.0,0.0,49,0.00,,,0.00,WUHU216HW,2013-07-22 19:29:00,
2013-07-22 12:31:00,87.5,66.6,29.96,North,0,0.0,0.0,50,0.00,,,0.00,WUHU216HW,2013-07-22 19:31:00,
2013-07-22 12:32:00,87.5,66.6,29.96,North,0,0.0,0.0,50,0.00,,,0.00,WUHU216HW,2013-07-22 19:32:00,
2013-07-22 12:33:00,87.5,66.6,29.96,North,0,0.0,0.0,50,0.00,,,0.00,WUHU216HW,2013-07-22 19:33:00,
2013-07-22 12:36:00,87.3,66.5,29.96,North,0,0.0,0.0,50,0.00,,,0.00,WUHU216HW,2013-07-22 19:36:00,
2013-07-22 12:37:00,87.3,66.5,29.96,North,0,0.0,0.0,50,0.00,,,0.00,WUHU216HW,2013-07-22 19:37:00,
2013-07-22 12:38:00,87.3,66.5,29.96,North,0,0.0,0.0,50,0.00,,,0.00,WUHU216HW,2013-07-22 19:38:00,
2013-07-22 12:42:00,87.1,66.3,29.95,North,0,0.0,0.0,50,0.00,,,0.00,WUHU216HW,2013-07-22 19:42:00,
2013-07-22 12:43:00,87.1,66.9,29.95,North,0,0.0,0.0,51,0.00,,,0.00,WUHU216HW,2013-07-22 19:43:00,
2013-07-22 12:44:00,87.1,66.9,29.95,North,0,0.0,0.0,51,0.00,,,0.00,WUHU216HW,2013-07-22 19:44:00,
2013-07-22 12:47:00,87.1,66.9,29.95,North,0,0.0,0.0,51,0.00,,,0.00,WUHU216HW,2013-07-22 19:47:00,
2013-07-22 12:48:00,87.1,66.9,29.95,North,0,0.0,0.0,51,0.00,,,0.00,WUHU216HW,2013-07-22 19:48:00,
2013-07-22 12:50:00,87.1,67.4,29.95,North,0,0.0,0.0,52,0.00,,,0.00,WUHU216HW,2013-07-22 19:50:00,
2013-07-22 12:51:00,87.1,66.9,29.95,North,0,0.0,0.0,51,0.00,,,0.00,WUHU216HW,2013-07-22 19:51:00,
2013-07-22 12:52:00,87.1,66.9,29.95,North,0,0.0,0.0,51,0.00,,,0.00,WUHU216HW,2013-07-22 19:52:00,
2013-07-22 12:53:00,86.9,67.2,29.95,North,0,0.0,0.0,52,0.00,,,0.00,WUHU216HW,2013-07-22 19:53:00,
2013-07-22 12:56:00,86.9,67.2,29.95,North,0,0.0,0.0,52,0.00,,,0.00,WUHU216HW,2013-07-22 19:56:00,
2013-07-22 12:57:00,86.9,67.2,29.95,North,0,0.0,0.0,52,0.00,,,0.00,WUHU216HW,2013-07-22 19:57:00,
2013-07-22 12:58:00,86.9,67.2,29.95,North,0,0.0,0.0,52,0.00,,,0.00,WUHU216HW,2013-07-22 19:58:00,
2013-07-22 13:01:00,86.8,67.1,29.95,North,0,0.0,0.0,52,0.00,,,0.00,WUHU216HW,2013-07-22 20:01:00,
2013-07-22 13:03:00,86.8,67.1,29.95,North,0,0.0,0.0,52,0.00,,,0.00,WUHU216HW,2013-07-22 20:03:00,
2013-07-22 13:04:00,86.8,67.1,29.95,North,0,0.0,0.0,52,0.00,,,0.00,WUHU216HW,2013-07-22 20:04:00,
2013-07-22 13:06:00,86.8,67.6,29.95,North,0,0.0,0.0,53,0.00,,,0.00,WUHU216HW,2013-07-22 20:06:00,
2013-07-22 13:08:00,86.6,67.4,29.95,North,0,0.0,0.0,53,0.00,,,0.00,WUHU216HW,2013-07-22 20:08:00,
2013-07-22 13:10:00,86.6,67.4,29.95,North,0,0.0,0.0,53,0.00,,,0.00,WUHU216HW,2013-07-22 20:10:00,
2013-07-22 13:11:00,86.4,67.2,29.94,North,0,0.0,0.0,53,0.00,,,0.00,WUHU216HW,2013-07-22 20:11:00,
2013-07-22 13:12:00,86.4,67.2,29.94,North,0,0.0,0.0,53,0.00,,,0.00,WUHU216HW,2013-07-22 20:12:00,
2013-07-22 13:13:00,86.4,67.2,29.94,North,0,0.0,0.0,53,0.00,,,0.00,WUHU216HW,2013-07-22 20:13:00,
2013-07-22 13:16:00,86.4,67.2,29.94,North,0,0.0,0.0,53,0.00,,,0.00,WUHU216HW,2013-07-22 20:16:00,
2013-07-22 13:17:00,86.2,67.1,29.94,North,0,0.0,0.0,53,0.00,,,0.00,WUHU216HW,2013-07-22 20:17:00,
2013-07-22 13:18:00,86.2,67.1,29.94,North,0,0.0,0.0,53,0.00,,,0.00,WUHU216HW,2013-07-22 20:18:00,
2013-07-22 13:20:00,86.2,67.1,29.94,North,0,0.0,0.0,53,0.00,,,0.00,WUHU216HW,2013-07-22 20:20:00,
2013-07-22 13:22:00,86.2,66.5,29.94,North,0,0.0,0.0,52,0.00,,,0.00,WUHU216HW,2013-07-22 20:22:00,
2013-07-22 13:23:00,86.0,66.4,29.94,North,0,0.0,0.0,52,0.00,,,0.00,WUHU216HW,2013-07-22 20:23:00,
2013-07-22 13:24:00,86.0,66.4,29.93,North,0,0.0,0.0,52,0.00,,,0.00,WUHU216HW,2013-07-22 20:24:00,
2013-07-22 13:26:00,86.0,66.4,29.93,North,0,0.0,0.0,52,0.00,,,0.00,WUHU216HW,2013-07-22 20:26:00,
2013-07-22 13:27:00,86.0,65.9,29.93,North,0,0.0,0.0,51,0.00,,,0.00,WUHU216HW,2013-07-22 20:27:00,
2013-07-22 13:28:00,86.0,65.9,29.93,North,0,0.0,0.0,51,0.00,,,0.00,WUHU216HW,2013-07-22 20:28:00,
2013-07-22 13:29:00,85.9,65.7,29.93,North,0,0.0,0.0,51,0.00,,,0.00,WUHU216HW,2013-07-22 20:29:00,
2013-07-22 13:31:00,85.7,65.5,29.93,North,0,0.0,0.0,51,0.00,,,0.00,WUHU216HW,2013-07-22 20:31:00,
2013-07-22 13:33:00,85.7,65.5,29.93,North,0,0.0,0.0,51,0.00,,,0.00,WUHU216HW,2013-07-22 20:33:00,
2013-07-22 13:34:00,85.7,65.0,29.93,North,0,0.0,0.0,50,0.00,,,0.00,WUHU216HW,2013-07-22 20:34:00,
2013-07-22 13:35:00,85.7,65.5,29.93,North,0,0.0,0.0,51,0.00,,,0.00,WUHU216HW,2013-07-22 20:35:00,
2013-07-22 13:36:00,85.5,65.3,29.93,North,0,0.0,0.0,51,0.00,,,0.00,WUHU216HW,2013-07-22 20:36:00,
2013-07-22 13:37:00,85.5,65.3,29.93,North,0,0.0,0.0,51,0.00,,,0.00,WUHU216HW,2013-07-22 20:37:00,
2013-07-22 13:38:00,85.5,65.3,29.93,North,0,0.0,0.0,51,0.00,,,0.00,WUHU216HW,2013-07-22 20:38:00,
2013-07-22 13:40:00,85.5,64.9,29.93,North,0,0.0,0.0,50,0.00,,,0.00,WUHU216HW,2013-07-22 20:40:00,
2013-07-22 13:42:00,85.7,65.0,29.93,North,0,0.0,0.0,50,0.00,,,0.00,WUHU216HW,2013-07-22 20:42:00,
2013-07-22 13:43:00,85.7,65.0,29.93,North,0,0.0,0.0,50,0.00,,,0.00,WUHU216HW,2013-07-22 20:43:00,
2013-07-22 13:44:00,85.5,64.9,29.93,North,0,0.0,0.0,50,0.00,,,0.00,WUHU216HW,2013-07-22 20:44:00,
2013-07-22 13:45:00,85.7,65.5,29.93,North,0,0.0,0.0,51,0.00,,,0.00,WUHU216HW,2013-07-22 20:45:00,
2013-07-22 13:46:00,85.7,65.0,29.93,North,0,0.0,0.0,50,0.00,,,0.00,WUHU216HW,2013-07-22 20:46:00,
2013-07-22 13:48:00,85.9,65.2,29.93,North,0,0.0,0.0,50,0.00,,,0.00,WUHU216HW,2013-07-22 20:48:00,
2013-07-22 13:49:00,85.9,65.2,29.93,North,0,0.0,0.0,50,0.00,,,0.00,WUHU216HW,2013-07-22 20:49:00,
2013-07-22 13:51:00,85.9,65.2,29.93,North,0,0.0,0.0,50,0.00,,,0.00,WUHU216HW,2013-07-22 20:51:00,
2013-07-22 13:52:00,85.9,65.2,29.93,North,0,0.0,0.0,50,0.00,,,0.00,WUHU216HW,2013-07-22 20:52:00,
2013-07-22 13:54:00,86.0,64.7,29.93,North,0,0.0,0.0,49,0.00,,,0.00,WUHU216HW,2013-07-22 20:54:00,
2013-07-22 13:55:00,85.9,64.5,29.93,North,0,0.0,0.0,49,0.00,,,0.00,WUHU216HW,2013-07-22 20:55:00,
2013-07-22 13:57:00,85.9,63.9,29.93,North,0,0.0,0.0,48,0.00,,,0.00,WUHU216HW,2013-07-22 20:57:00,
2013-07-22 13:58:00,86.0,64.1,29.93,North,0,0.0,0.0,48,0.00,,,0.00,WUHU216HW,2013-07-22 20:58:00,
2013-07-22 14:00:00,86.0,64.1,29.93,North,0,0.0,0.0,48,0.00,,,0.00,WUHU216HW,2013-07-22 21:00:00,
2013-07-22 14:02:00,86.0,64.1,29.93,North,0,0.0,0.0,48,0.00,,,0.00,WUHU216HW,2013-07-22 21:02:00,
2013-07-22 14:03:00,86.2,64.3,29.93,North,0,0.0,0.0,48,0.00,,,0.00,WUHU216HW,2013-07-22 21:03:00,
2013-07-22 14:04:00,86.4,63.8,29.93,North,0,0.0,0.0,47,0.00,,,0.00,WUHU216HW,2013-07-22 21:04:00,
2013-07-22 14:05:00,86.6,63.9,29.93,North,0,0.0,0.0,47,0.00,,,0.00,WUHU216HW,2013-07-22 21:05:00,
2013-07-22 14:06:00,86.8,64.1,29.93,North,0,0.0,0.0,47,0.00,,,0.00,WUHU216HW,2013-07-22 21:06:00,
2013-07-22 14:07:00,86.9,64.3,29.93,North,0,0.0,0.0,47,0.00,,,0.00,WUHU216HW,2013-07-22 21:07:00,
2013-07-22 14:08:00,87.1,64.5,29.93,North,0,0.0,0.0,47,0.00,,,0.00,WUHU216HW,2013-07-22 21:08:00,
2013-07-22 14:09:00,87.1,63.8,29.93,North,0,0.0,0.0,46,0.00,,,0.00,WUHU216HW,2013-07-22 21:09:00,
2013-07-22 14:10:00,87.3,64.0,29.93,North,0,0.0,0.0,46,0.00,,,0.00,WUHU216HW,2013-07-22 21:10:00,
2013-07-22 14:12:00,87.5,64.1,29.92,North,0,0.0,0.0,46,0.00,,,0.00,WUHU216HW,2013-07-22 21:12:00,
2013-07-22 14:13:00,87.7,64.3,29.92,North,0,0.0,0.0,46,0.00,,,0.00,WUHU216HW,2013-07-22 21:13:00,
2013-07-22 14:14:00,87.7,63.6,29.92,North,0,0.0,0.0,45,0.00,,,0.00,WUHU216HW,2013-07-22 21:14:00,
2013-07-22 14:16:00,87.8,63.2,29.92,North,0,0.0,0.0,44,0.00,,,0.00,WUHU216HW,2013-07-22 21:16:00,
2013-07-22 14:17:00,87.8,63.2,29.92,North,0,0.0,0.0,44,0.00,,,0.00,WUHU216HW,2013-07-22 21:17:00,
2013-07-22 14:19:00,87.8,62.6,29.92,North,0,0.0,0.0,43,0.00,,,0.00,WUHU216HW,2013-07-22 21:19:00,
2013-07-22 14:21:00,87.8,62.6,29.92,North,0,0.0,0.0,43,0.00,,,0.00,WUHU216HW,2013-07-22 21:21:00,
2013-07-22 14:22:00,87.7,62.4,29.92,North,0,0.0,0.0,43,0.00,,,0.00,WUHU216HW,2013-07-22 21:22:00,
2013-07-22 14:24:00,87.8,63.2,29.92,North,0,0.0,0.0,44,0.00,,,0.00,WUHU216HW,2013-07-22 21:24:00,
2013-07-22 14:25:00,87.8,63.8,29.92,North,0,0.0,0.0,45,0.00,,,0.00,WUHU216HW,2013-07-22 21:25:00,
2013-07-22 14:27:00,88.0,64.0,29.92,North,0,0.0,0.0,45,0.00,,,0.00,WUHU216HW,2013-07-22 21:27:00,
2013-07-22 14:29:00,88.4,63.6,29.92,North,0,0.0,0.0,44,0.00,,,0.00,WUHU216HW,2013-07-22 21:29:00,
2013-07-22 14:30:00,88.4,63.6,29.92,North,0,0.0,0.0,44,0.00,,,0.00,WUHU216HW,2013-07-22 21:30:00,
2013-07-22 14:32:00,88.6,64.5,29.92,North,0,0.0,0.0,45,0.00,,,0.00,WUHU216HW,2013-07-22 21:32:00,
2013-07-22 14:33:00,88.7,64.6,29.92,North,0,0.0,0.0,45,0.00,,,0.00,WUHU216HW,2013-07-22 21:33:00,
2013-07-22 14:34:00,88.9,64.7,29.92,North,0,0.0,0.0,45,0.00,,,0.00,WUHU216HW,2013-07-22 21:34:00,
2013-07-22 14:35:00,88.9,64.7,29.92,North,0,0.0,0.0,45,0.00,,,0.00,WUHU216HW,2013-07-22 21:35:00,
2013-07-22 14:37:00,89.3,63.7,29.92,North,0,0.0,0.0,43,0.00,,,0.00,WUHU216HW,2013-07-22 21:37:00,
2013-07-22 14:38:00,89.3,63.7,29.92,North,0,0.0,0.0,43,0.00,,,0.00,WUHU216HW,2013-07-22 21:38:00,
2013-07-22 14:39:00,89.5,63.3,29.92,North,0,0.0,0.0,42,0.00,,,0.00,WUHU216HW,2013-07-22 21:39:00,
2013-07-22 14:40:00,89.5,63.3,29.92,North,0,0.0,0.0,42,0.00,,,0.00,WUHU216HW,2013-07-22 21:40:00,
2013-07-22 14:43:00,89.5,62.7,29.92,North,0,0.0,0.0,41,0.00,,,0.00,WUHU216HW,2013-07-22 21:43:00,
2013-07-22 14:44:00,89.5,61.9,29.92,North,0,0.0,0.0,40,0.00,,,0.00,WUHU216HW,2013-07-22 21:44:00,
2013-07-22 14:45:00,89.3,62.5,29.92,North,0,0.0,0.0,41,0.00,,,0.00,WUHU216HW,2013-07-22 21:45:00,
2013-07-22 14:49:00,89.3,63.1,29.92,North,0,0.0,0.0,42,0.00,,,0.00,WUHU216HW,2013-07-22 21:49:00,
2013-07-22 14:50:00,89.3,62.5,29.92,North,0,0.0,0.0,41,0.00,,,0.00,WUHU216HW,2013-07-22 21:50:00,
2013-07-22 14:54:00,88.9,61.6,29.92,North,0,0.0,0.0,40,0.00,,,0.00,WUHU216HW,2013-07-22 21:54:00,
2013-07-22 14:55:00,88.9,62.2,29.92,North,0,0.0,0.0,41,0.00,,,0.00,WUHU216HW,2013-07-22 21:55:00,
2013-07-22 14:56:00,88.9,62.2,29.92,North,0,0.0,0.0,41,0.00,,,0.00,WUHU216HW,2013-07-22 21:56:00,
2013-07-22 14:58:00,88.7,63.3,29.92,North,0,0.0,0.0,43,0.00,,,0.00,WUHU216HW,2013-07-22 21:58:00,
2013-07-22 14:59:00,88.7,63.3,29.92,North,0,0.0,0.0,43,0.00,,,0.00,WUHU216HW,2013-07-22 21:59:00,
2013-07-22 15:00:00,88.7,63.3,29.92,North,0,0.0,0.0,43,0.00,,,0.00,WUHU216HW,2013-07-22 22:00:00,
2013-07-22 15:01:00,88.7,62.6,29.92,North,0,0.0,0.0,42,0.00,,,0.00,WUHU216HW,2013-07-22 22:01:00,
2013-07-22 15:02:00,88.7,62.6,29.92,North,0,0.0,0.0,42,0.00,,,0.00,WUHU216HW,2013-07-22 22:02:00,
2013-07-22 15:04:00,88.7,62.6,29.92,North,0,0.0,0.0,42,0.00,,,0.00,WUHU216HW,2013-07-22 22:04:00,
2013-07-22 15:05:00,88.7,62.6,29.92,North,0,0.0,0.0,42,0.00,,,0.00,WUHU216HW,2013-07-22 22:05:00,
2013-07-22 15:07:00,88.9,63.5,29.92,North,0,0.0,0.0,43,0.00,,,0.00,WUHU216HW,2013-07-22 22:07:00,
2013-07-22 15:08:00,88.7,62.6,29.92,North,0,0.0,0.0,42,0.00,,,0.00,WUHU216HW,2013-07-22 22:08:00,
2013-07-22 15:09:00,88.7,62.6,29.92,North,0,0.0,0.0,42,0.00,,,0.00,WUHU216HW,2013-07-22 22:09:00,
2013-07-22 15:10:00,88.7,62.0,29.92,North,0,0.0,0.0,41,0.00,,,0.00,WUHU216HW,2013-07-22 22:10:00,
2013-07-22 15:11:00,88.7,62.6,29.92,North,0,0.0,0.0,42,0.00,,,0.00,WUHU216HW,2013-07-22 22:11:00,
2013-07-22 15:13:00,88.7,62.6,29.92,North,0,0.0,0.0,42,0.00,,,0.00,WUHU216HW,2013-07-22 22:13:00,
2013-07-22 15:15:00,88.6,61.8,29.92,North,0,0.0,0.0,41,0.00,,,0.00,WUHU216HW,2013-07-22 22:15:00,
2013-07-22 15:16:00,88.6,62.6,29.92,North,0,0.0,0.0,42,0.00,,,0.00,WUHU216HW,2013-07-22 22:16:00,
2013-07-22 15:17:00,88.6,62.6,29.92,North,0,0.0,0.0,42,0.00,,,0.00,WUHU216HW,2013-07-22 22:17:00,
2013-07-22 15:19:00,88.4,62.4,29.91,North,0,0.0,0.0,42,0.00,,,0.00,WUHU216HW,2013-07-22 22:19:00,
2013-07-22 15:21:00,88.2,62.8,29.91,North,0,0.0,0.0,43,0.00,,,0.00,WUHU216HW,2013-07-22 22:21:00,
2013-07-22 15:22:00,88.2,62.2,29.91,North,0,0.0,0.0,42,0.00,,,0.00,WUHU216HW,2013-07-22 22:22:00,
2013-07-22 15:23:00,88.2,62.8,29.91,North,0,0.0,0.0,43,0.00,,,0.00,WUHU216HW,2013-07-22 22:23:00,
2013-07-22 15:24:00,88.2,62.8,29.91,North,0,0.0,0.0,43,0.00,,,0.00,WUHU216HW,2013-07-22 22:24:00,
2013-07-22 15:27:00,88.0,62.7,29.91,North,0,0.0,0.0,43,0.00,,,0.00,WUHU216HW,2013-07-22 22:27:00,
2013-07-22 15:28:00,88.0,62.7,29.91,North,0,0.0,0.0,43,0.00,,,0.00,WUHU216HW,2013-07-22 22:28:00,
2013-07-22 15:29:00,88.0,63.4,29.91,North,0,0.0,0.0,44,0.00,,,0.00,WUHU216HW,2013-07-22 22:29:00,
2013-07-22 15:32:00,88.0,62.1,29.91,North,0,0.0,0.0,42,0.00,,,0.00,WUHU216HW,2013-07-22 22:32:00,
2013-07-22 15:33:00,88.0,62.7,29.91,North,0,0.0,0.0,43,0.00,,,0.00,WUHU216HW,2013-07-22 22:33:00,
2013-07-22 15:34:00,88.0,62.7,29.91,North,0,0.0,0.0,43,0.00,,,0.00,WUHU216HW,2013-07-22 22:34:00,
2013-07-22 15:37:00,88.0,62.7,29.91,North,0,0.0,0.0,43,0.00,,,0.00,WUHU216HW,2013-07-22 22:37:00,
2013-07-22 15:38:00,88.0,62.7,29.91,North,0,0.0,0.0,43,0.00,,,0.00,WUHU216HW,2013-07-22 22:38:00,
2013-07-22 15:39:00,88.0,62.7,29.91,North,0,0.0,0.0,43,0.00,,,0.00,WUHU216HW,2013-07-22 22:39:00,
2013-07-22 15:43:00,88.0,62.7,29.91,North,0,0.0,0.0,43,0.00,,,0.00,WUHU216HW,2013-07-22 22:43:00,
2013-07-22 15:44:00,88.0,62.7,29.91,North,0,0.0,0.0,43,0.00,,,0.00,WUHU216HW,2013-07-22 22:44:00,
2013-07-22 15:46:00,87.8,62.6,29.92,North,0,0.0,0.0,43,0.00,,,0.00,WUHU216HW,2013-07-22 22:46:00,
2013-07-22 15:50:00,87.5,62.8,29.92,North,0,0.0,0.0,44,0.00,,,0.00,WUHU216HW,2013-07-22 22:50:00,
2013-07-22 15:51:00,87.5,62.8,29.92,North,0,0.0,0.0,44,0.00,,,0.00,WUHU216HW,2013-07-22 22:51:00,
2013-07-22 15:52:00,87.5,62.8,29.92,North,0,0.0,0.0,44,0.00,,,0.00,WUHU216HW,2013-07-22 22:52:00,
2013-07-22 15:56:00,86.9,62.4,29.91,North,0,0.0,0.0,44,0.00,,,0.00,WUHU216HW,2013-07-22 22:56:00,
2013-07-22 15:57:00,86.9,62.4,29.92,North,0,0.0,0.0,44,0.00,,,0.00,WUHU216HW,2013-07-22 22:57:00,
2013-07-22 15:58:00,86.8,62.8,29.92,North,0,0.0,0.0,45,0.00,,,0.00,WUHU216HW,2013-07-22 22:58:00,
2013-07-22 16:02:00,86.6,62.6,29.92,North,0,0.0,0.0,45,0.00,,,0.00,WUHU216HW,2013-07-22 23:02:00,
2013-07-22 16:03:00,86.4,63.2,29.92,North,0,0.0,0.0,46,0.00,,,0.00,WUHU216HW,2013-07-22 23:03:00,
2013-07-22 16:04:00,86.4,63.2,29.92,North,0,0.0,0.0,46,0.00,,,0.00,WUHU216HW,2013-07-22 23:04:00,
2013-07-22 16:07:00,86.2,63.0,29.92,North,0,0.0,0.0,46,0.00,,,0.00,WUHU216HW,2013-07-22 23:07:00,
2013-07-22 16:09:00,86.2,63.6,29.92,North,0,0.0,0.0,47,0.00,,,0.00,WUHU216HW,2013-07-22 23:09:00,
2013-07-22 16:10:00,86.2,63.6,29.92,North,0,0.0,0.0,47,0.00,,,0.00,WUHU216HW,2013-07-22 23:10:00,
2013-07-22 16:12:00,86.2,63.0,29.92,North,0,0.0,0.0,46,0.00,,,0.00,WUHU216HW,2013-07-22 23:12:00,
2013-07-22 16:14:00,86.0,62.8,29.92,North,0,0.0,0.0,46,0.00,,,0.00,WUHU216HW,2013-07-22 23:14:00,
2013-07-22 16:15:00,86.0,63.5,29.92,North,0,0.0,0.0,47,0.00,,,0.00,WUHU216HW,2013-07-22 23:15:00,
2013-07-22 16:16:00,86.0,63.5,29.92,North,0,0.0,0.0,47,0.00,,,0.00,WUHU216HW,2013-07-22 23:16:00,
2013-07-22 16:18:00,86.0,63.5,29.92,North,0,0.0,0.0,47,0.00,,,0.00,WUHU216HW,2013-07-22 23:18:00,
2013-07-22 16:19:00,86.0,63.5,29.91,North,0,0.0,0.0,47,0.00,,,0.00,WUHU216HW,2013-07-22 23:19:00,
2013-07-22 16:20:00,86.0,63.5,29.91,North,0,0.0,0.0,47,0.00,,,0.00,WUHU216HW,2013-07-22 23:20:00,
2013-07-22 16:23:00,86.0,63.5,29.91,North,0,0.0,0.0,47,0.00,,,0.00,WUHU216HW,2013-07-22 23:23:00,
2013-07-22 16:24:00,86.0,63.5,29.91,North,0,0.0,0.0,47,0.00,,,0.00,WUHU216HW,2013-07-22 23:24:00,
2013-07-22 16:25:00,86.2,63.6,29.91,North,0,0.0,0.0,47,0.00,,,0.00,WUHU216HW,2013-07-22 23:25:00,
2013-07-22 16:26:00,86.0,63.5,29.91,North,0,0.0,0.0,47,0.00,,,0.00,WUHU216HW,2013-07-22 23:26:00,
2013-07-22 16:29:00,86.2,63.6,29.91,North,0,0.0,0.0,47,0.00,,,0.00,WUHU216HW,2013-07-22 23:29:00,
2013-07-22 16:31:00,86.2,64.3,29.91,North,0,0.0,0.0,48,0.00,,,0.00,WUHU216HW,2013-07-22 23:31:00,
2013-07-22 16:34:00,86.0,64.1,29.91,North,0,0.0,0.0,48,0.00,,,0.00,WUHU216HW,2013-07-22 23:34:00,
2013-07-22 16:36:00,86.0,64.7,29.91,North,0,0.0,0.0,49,0.00,,,0.00,WUHU216HW,2013-07-22 23:36:00,
2013-07-22 16:37:00,86.0,64.7,29.92,North,0,0.0,0.0,49,0.00,,,0.00,WUHU216HW,2013-07-22 23:37:00,
2013-07-22 16:38:00,86.2,64.9,29.92,North,0,0.0,0.0,49,0.00,,,0.00,WUHU216HW,2013-07-22 23:38:00,
2013-07-22 16:39:00,86.0,64.7,29.92,North,0,0.0,0.0,49,0.00,,,0.00,WUHU216HW,2013-07-22 23:39:00,
2013-07-22 16:40:00,86.2,64.9,29.93,North,0,0.0,0.0,49,0.00,,,0.00,WUHU216HW,2013-07-22 23:40:00,
2013-07-22 16:42:00,86.0,64.1,29.93,North,0,0.0,0.0,48,0.00,,,0.00,WUHU216HW,2013-07-22 23:42:00,
2013-07-22 16:43:00,85.9,63.9,29.93,North,0,0.0,0.0,48,0.00,,,0.00,WUHU216HW,2013-07-22 23:43:00,
2013-07-22 16:44:00,85.5,63.6,29.93,North,0,0.0,0.0,48,0.00,,,0.00,WUHU216HW,2013-07-22 23:44:00,
2013-07-22 16:46:00,85.1,62.6,29.93,North,0,0.0,0.0,47,0.00,,,0.00,WUHU216HW,2013-07-22 23:46:00,
2013-07-22 16:47:00,85.0,63.7,29.93,North,0,0.0,0.0,49,0.00,,,0.00,WUHU216HW,2013-07-22 23:47:00,
2013-07-22 16:48:00,84.6,63.5,29.93,North,0,0.0,0.0,49,0.00,,,0.00,WUHU216HW,2013-07-22 23:48:00,
2013-07-22 16:50:00,84.2,63.1,29.93,North,0,0.0,0.0,49,0.00,,,0.00,WUHU216HW,2013-07-22 23:50:00,
2013-07-22 16:51:00,84.1,62.9,29.93,North,0,0.0,0.0,49,0.00,,,0.00,WUHU216HW,2013-07-22 23:51:00,
2013-07-22 16:53:00,83.9,62.7,29.93,North,0,0.0,0.0,49,0.00,,,0.00,WUHU216HW,2013-07-22 23:53:00,
2013-07-22 16:57:00,83.7,63.2,29.93,North,0,0.0,0.0,50,0.00,,,0.00,WUHU216HW,2013-07-22 23:57:00,
2013-07-22 16:58:00,83.7,63.2,29.93,North,0,0.0,0.0,50,0.00,,,0.00,WUHU216HW,2013-07-22 23:58:00,
2013-07-22 16:59:00,83.5,63.0,29.93,North,0,0.0,0.0,50,0.00,,,0.00,WUHU216HW,2013-07-22 23:59:00,
2013-07-22 17:02:00,83.7,63.2,29.92,North,0,0.0,0.0,50,0.00,,,0.00,WUHU216HW,2013-07-23 00:02:00,
2013-07-22 17:03:00,83.7,63.2,29.92,North,0,0.0,0.0,50,0.00,,,0.00,WUHU216HW,2013-07-23 00:03:00,
2013-07-22 17:04:00,83.7,63.2,29.92,North,0,0.0,0.0,50,0.00,,,0.00,WUHU216HW,2013-07-23 00:04:00,
2013-07-22 17:05:00,83.7,63.2,29.92,North,0,0.0,0.0,50,0.00,,,0.00,WUHU216HW,2013-07-23 00:05:00,
2013-07-22 17:07:00,83.5,63.0,29.92,North,0,0.0,0.0,50,0.00,,,0.00,WUHU216HW,2013-07-23 00:07:00,
2013-07-22 17:08:00,83.5,63.0,29.92,North,0,0.0,0.0,50,0.00,,,0.00,WUHU216HW,2013-07-23 00:08:00,
2013-07-22 17:09:00,83.5,63.0,29.92,North,0,0.0,0.0,50,0.00,,,0.00,WUHU216HW,2013-07-23 00:09:00,
2013-07-22 17:10:00,83.5,63.0,29.92,North,0,0.0,0.0,50,0.00,,,0.00,WUHU216HW,2013-07-23 00:10:00,
2013-07-22 17:13:00,83.5,63.0,29.92,North,0,0.0,0.0,50,0.00,,,0.00,WUHU216HW,2013-07-23 00:13:00,
2013-07-22 17:14:00,83.5,63.0,29.92,North,0,0.0,0.0,50,0.00,,,0.00,WUHU216HW,2013-07-23 00:14:00,
2013-07-22 17:15:00,83.5,63.0,29.92,North,0,0.0,0.0,50,0.00,,,0.00,WUHU216HW,2013-07-23 00:15:00,
2013-07-22 17:16:00,83.5,63.0,29.92,North,0,0.0,0.0,50,0.00,,,0.00,WUHU216HW,2013-07-23 00:16:00,
2013-07-22 17:19:00,83.3,62.8,29.92,North,0,0.0,0.0,50,0.00,,,0.00,WUHU216HW,2013-07-23 00:19:00,
2013-07-22 17:20:00,83.2,62.6,29.92,North,0,0.0,0.0,50,0.00,,,0.00,WUHU216HW,2013-07-23 00:20:00,
2013-07-22 17:21:00,83.2,62.6,29.92,North,0,0.0,0.0,50,0.00,,,0.00,WUHU216HW,2013-07-23 00:21:00,
2013-07-22 17:24:00,82.6,62.1,29.92,North,0,0.0,0.0,50,0.00,,,0.00,WUHU216HW,2013-07-23 00:24:00,
2013-07-22 17:25:00,82.6,62.1,29.91,North,0,0.0,0.0,50,0.00,,,0.00,WUHU216HW,2013-07-23 00:25:00,
2013-07-22 17:26:00,82.6,62.1,29.91,North,0,0.0,0.0,50,0.00,,,0.00,WUHU216HW,2013-07-23 00:26:00,
2013-07-22 17:28:00,82.6,62.1,29.92,North,0,0.0,0.0,50,0.00,,,0.00,WUHU216HW,2013-07-23 00:28:00,
2013-07-22 17:30:00,82.4,61.9,29.92,North,0,0.0,0.0,50,0.00,,,0.00,WUHU216HW,2013-07-23 00:30:00,
2013-07-22 17:31:00,82.4,61.9,29.92,North,0,0.0,0.0,50,0.00,,,0.00,WUHU216HW,2013-07-23 00:31:00,
2013-07-22 17:32:00,82.3,62.3,29.92,North,0,0.0,0.0,51,0.00,,,0.00,WUHU216HW,2013-07-23 00:32:00,
2013-07-22 17:34:00,82.3,62.3,29.92,North,0,0.0,0.0,51,0.00,,,0.00,WUHU216HW,2013-07-23 00:34:00,
2013-07-22 17:35:00,81.9,62.5,29.92,North,0,0.0,0.0,52,0.00,,,0.00,WUHU216HW,2013-07-23 00:35:00,
2013-07-22 17:36:00,81.7,62.8,29.92,North,0,0.0,0.0,53,0.00,,,0.00,WUHU216HW,2013-07-23 00:36:00,
2013-07-22 17:37:00,81.5,62.6,29.92,North,0,0.0,0.0,53,0.00,,,0.00,WUHU216HW,2013-07-23 00:37:00,
2013-07-22 17:38:00,81.4,62.6,29.92,North,0,0.0,0.0,53,0.00,,,0.00,WUHU216HW,2013-07-23 00:38:00,
2013-07-22 17:39:00,81.4,62.6,29.92,North,0,0.0,0.0,53,0.00,,,0.00,WUHU216HW,2013-07-23 00:39:00,
2013-07-22 17:42:00,81.0,62.7,29.92,North,0,0.0,0.0,54,0.00,,,0.00,WUHU216HW,2013-07-23 00:42:00,
2013-07-22 17:44:00,80.6,62.4,29.92,North,0,0.0,0.0,54,0.00,,,0.00,WUHU216HW,2013-07-23 00:44:00,
2013-07-22 17:45:00,80.6,62.4,29.92,North,0,0.0,0.0,54,0.00,,,0.00,WUHU216HW,2013-07-23 00:45:00,
2013-07-22 17:47:00,80.3,62.1,29.92,North,0,0.0,0.0,54,0.00,,,0.00,WUHU216HW,2013-07-23 00:47:00,
2013-07-22 17:48:00,80.3,62.1,29.92,North,0,0.0,0.0,54,0.00,,,0.00,WUHU216HW,2013-07-23 00:48:00,
2013-07-22 17:49:00,80.3,62.1,29.92,North,0,0.0,0.0,54,0.00,,,0.00,WUHU216HW,2013-07-23 00:49:00,
2013-07-22 17:50:00,80.3,62.1,29.92,North,0,0.0,0.0,54,0.00,,,0.00,WUHU216HW,2013-07-23 00:50:00,
2013-07-22 17:53:00,80.1,62.5,29.92,North,0,0.0,0.0,55,0.00,,,0.00,WUHU216HW,2013-07-23 00:53:00,
2013-07-22 17:54:00,80.1,62.5,29.92,North,0,0.0,0.0,55,0.00,,,0.00,WUHU216HW,2013-07-23 00:54:00,
2013-07-22 17:56:00,80.3,62.1,29.92,North,0,0.0,0.0,54,0.00,,,0.00,WUHU216HW,2013-07-23 00:56:00,
2013-07-22 17:58:00,80.3,62.6,29.92,North,0,0.0,0.0,55,0.00,,,0.00,WUHU216HW,2013-07-23 00:58:00,
2013-07-22 18:00:00,80.3,62.6,29.92,North,0,0.0,0.0,55,0.00,,,0.00,WUHU216HW,2013-07-23 01:00:00,
2013-07-22 18:01:00,80.3,62.6,29.92,North,0,0.0,0.0,55,0.00,,,0.00,WUHU216HW,2013-07-23 01:01:00,
2013-07-22 18:02:00,80.5,62.7,29.92,North,0,0.0,0.0,55,0.00,,,0.00,WUHU216HW,2013-07-23 01:02:00,
2013-07-22 18:04:00,80.5,62.7,29.92,North,0,0.0,0.0,55,0.00,,,0.00,WUHU216HW,2013-07-23 01:04:00,
2013-07-22 18:05:00,80.5,62.7,29.92,North,0,0.0,0.0,55,0.00,,,0.00,WUHU216HW,2013-07-23 01:05:00,
2013-07-22 18:07:00,80.6,62.9,29.92,North,0,0.0,0.0,55,0.00,,,0.00,WUHU216HW,2013-07-23 01:07:00,
2013-07-22 18:08:00,80.6,62.9,29.91,North,0,0.0,0.0,55,0.00,,,0.00,WUHU216HW,2013-07-23 01:08:00,
2013-07-22 18:09:00,80.6,62.9,29.91,North,0,0.0,0.0,55,0.00,,,0.00,WUHU216HW,2013-07-23 01:09:00,
2013-07-22 18:10:00,80.6,62.9,29.91,North,0,0.0,0.0,55,0.00,,,0.00,WUHU216HW,2013-07-23 01:10:00,
2013-07-22 18:11:00,80.6,62.9,29.91,North,0,0.0,0.0,55,0.00,,,0.00,WUHU216HW,2013-07-23 01:11:00,
2013-07-22 18:13:00,80.8,63.1,29.91,North,0,0.0,0.0,55,0.00,,,0.00,WUHU216HW,2013-07-23 01:13:00,
2013-07-22 18:14:00,80.8,63.1,29.91,North,0,0.0,0.0,55,0.00,,,0.00,WUHU216HW,2013-07-23 01:14:00,
2013-07-22 18:15:00,80.8,63.1,29.91,North,0,0.0,0.0,55,0.00,,,0.00,WUHU216HW,2013-07-23 01:15:00,
2013-07-22 18:17:00,80.8,63.1,29.91,North,0,0.0,0.0,55,0.00,,,0.00,WUHU216HW,2013-07-23 01:17:00,
2013-07-22 18:19:00,80.8,63.1,29.91,North,0,0.0,0.0,55,0.00,,,0.00,WUHU216HW,2013-07-23 01:19:00,
2013-07-22 18:20:00,81.0,63.3,29.91,North,0,0.0,0.0,55,0.00,,,0.00,WUHU216HW,2013-07-23 01:20:00,
2013-07-22 18:22:00,81.0,62.7,29.91,North,0,0.0,0.0,54,0.00,,,0.00,WUHU216HW,2013-07-23 01:22:00,
2013-07-22 18:24:00,80.8,63.1,29.91,North,0,0.0,0.0,55,0.00,,,0.00,WUHU216HW,2013-07-23 01:24:00,
2013-07-22 18:25:00,80.8,63.1,29.91,North,0,0.0,0.0,55,0.00,,,0.00,WUHU216HW,2013-07-23 01:25:00,
2013-07-22 18:26:00,80.8,63.1,29.91,North,0,0.0,0.0,55,0.00,,,0.00,WUHU216HW,2013-07-23 01:26:00,
2013-07-22 18:28:00,80.8,63.1,29.91,North,0,0.0,0.0,55,0.00,,,0.00,WUHU216HW,2013-07-23 01:28:00,
2013-07-22 18:29:00,80.8,63.1,29.91,North,0,0.0,0.0,55,0.00,,,0.00,WUHU216HW,2013-07-23 01:29:00,
2013-07-22 18:30:00,80.8,63.1,29.91,North,0,0.0,0.0,55,0.00,,,0.00,WUHU216HW,2013-07-23 01:30:00,
2013-07-22 18:31:00,80.8,63.1,29.91,North,0,0.0,0.0,55,0.00,,,0.00,WUHU216HW,2013-07-23 01:31:00,
2013-07-22 18:33:00,80.6,62.9,29.91,North,0,0.0,0.0,55,0.00,,,0.00,WUHU216HW,2013-07-23 01:33:00,
2013-07-22 18:34:00,80.6,62.9,29.91,North,0,0.0,0.0,55,0.00,,,0.00,WUHU216HW,2013-07-23 01:34:00,
2013-07-22 18:36:00,80.6,62.9,29.91,North,0,0.0,0.0,55,0.00,,,0.00,WUHU216HW,2013-07-23 01:36:00,
2013-07-22 18:37:00,80.6,62.9,29.91,North,0,0.0,0.0,55,0.00,,,0.00,WUHU216HW,2013-07-23 01:37:00,
2013-07-22 18:39:00,80.6,62.9,29.91,North,0,0.0,0.0,55,0.00,,,0.00,WUHU216HW,2013-07-23 01:39:00,
2013-07-22 18:40:00,80.6,62.9,29.91,North,0,0.0,0.0,55,0.00,,,0.00,WUHU216HW,2013-07-23 01:40:00,
2013-07-22 18:41:00,80.6,62.9,29.91,North,0,0.0,0.0,55,0.00,,,0.00,WUHU216HW,2013-07-23 01:41:00,
2013-07-22 18:42:00,80.6,62.9,29.91,North,0,0.0,0.0,55,0.00,,,0.00,WUHU216HW,2013-07-23 01:42:00,
2013-07-22 18:43:00,80.5,63.3,29.91,North,0,0.0,0.0,56,0.00,,,0.00,WUHU216HW,2013-07-23 01:43:00,
2013-07-22 18:44:00,80.5,63.3,29.91,North,0,0.0,0.0,56,0.00,,,0.00,WUHU216HW,2013-07-23 01:44:00,
2013-07-22 18:45:00,80.5,63.3,29.91,North,0,0.0,0.0,56,0.00,,,0.00,WUHU216HW,2013-07-23 01:45:00,
2013-07-22 18:47:00,80.5,63.3,29.91,North,0,0.0,0.0,56,0.00,,,0.00,WUHU216HW,2013-07-23 01:47:00,
2013-07-22 18:48:00,80.3,63.1,29.92,North,0,0.0,0.0,56,0.00,,,0.00,WUHU216HW,2013-07-23 01:48:00,
2013-07-22 18:50:00,80.3,63.6,29.92,North,0,0.0,0.0,57,0.00,,,0.00,WUHU216HW,2013-07-23 01:50:00,
2013-07-22 18:53:00,80.1,63.5,29.92,North,0,0.0,0.0,57,0.00,,,0.00,WUHU216HW,2013-07-23 01:53:00,
2013-07-22 18:55:00,79.9,63.3,29.92,North,0,0.0,0.0,57,0.00,,,0.00,WUHU216HW,2013-07-23 01:55:00,
2013-07-22 18:56:00,79.9,63.8,29.91,North,0,0.0,0.0,58,0.00,,,0.00,WUHU216HW,2013-07-23 01:56:00,
2013-07-22 18:58:00,79.9,63.8,29.91,North,0,0.0,0.0,58,0.00,,,0.00,WUHU216HW,2013-07-23 01:58:00,
2013-07-22 18:59:00,79.9,63.8,29.91,North,0,0.0,0.0,58,0.00,,,0.00,WUHU216HW,2013-07-23 01:59:00,
2013-07-22 19:01:00,79.7,63.6,29.91,North,0,0.0,0.0,58,0.00,,,0.00,WUHU216HW,2013-07-23 02:01:00,
2013-07-22 19:03:00,79.6,64.0,29.91,North,0,0.0,0.0,59,0.00,,,0.00,WUHU216HW,2013-07-23 02:03:00,
2013-07-22 19:04:00,79.6,64.0,29.91,North,0,0.0,0.0,59,0.00,,,0.00,WUHU216HW,2013-07-23 02:04:00,
2013-07-22 19:07:00,79.2,63.7,29.91,North,0,0.0,0.0,59,0.00,,,0.00,WUHU216HW,2013-07-23 02:07:00,
2013-07-22 19:09:00,79.2,64.3,29.91,North,0,0.0,0.0,60,0.00,,,0.00,WUHU216HW,2013-07-23 02:09:00,
2013-07-22 19:10:00,79.0,64.1,29.92,North,0,0.0,0.0,60,0.00,,,0.00,WUHU216HW,2013-07-23 02:10:00,
2013-07-22 19:12:00,79.0,64.1,29.91,North,0,0.0,0.0,60,0.00,,,0.00,WUHU216HW,2013-07-23 02:12:00,
2013-07-22 19:15:00,78.8,63.9,29.92,North,0,0.0,0.0,60,0.00,,,0.00,WUHU216HW,2013-07-23 02:15:00,
2013-07-22 19:16:00,78.8,63.9,29.92,North,0,0.0,0.0,60,0.00,,,0.00,WUHU216HW,2013-07-23 02:16:00,
2013-07-22 19:18:00,78.8,63.9,29.92,North,0,0.0,0.0,60,0.00,,,0.00,WUHU216HW,2013-07-23 02:18:00,
2013-07-22 19:20:00,78.8,63.9,29.92,North,0,0.0,0.0,60,0.00,,,0.00,WUHU216HW,2013-07-23 02:20:00,
2013-07-22 19:21:00,78.8,63.9,29.92,North,0,0.0,0.0,60,0.00,,,0.00,WUHU216HW,2013-07-23 02:21:00,
2013-07-22 19:23:00,78.8,63.9,29.92,North,0,0.0,0.0,60,0.00,,,0.00,WUHU216HW,2013-07-23 02:23:00,
2013-07-22 19:24:00,78.8,63.9,29.92,North,0,0.0,0.0,60,0.00,,,0.00,WUHU216HW,2013-07-23 02:24:00,
2013-07-22 19:26:00,78.7,63.7,29.91,North,0,0.0,0.0,60,0.00,,,0.00,WUHU216HW,2013-07-23 02:26:00,
2013-07-22 19:27:00,78.7,63.7,29.92,North,0,0.0,0.0,60,0.00,,,0.00,WUHU216HW,2013-07-23 02:27:00,
2013-07-22 19:28:00,78.7,63.7,29.92,North,0,0.0,0.0,60,0.00,,,0.00,WUHU216HW,2013-07-23 02:28:00,
2013-07-22 19:29:00,78.5,63.5,29.92,North,0,0.0,0.0,60,0.00,,,0.00,WUHU216HW,2013-07-23 02:29:00,
2013-07-22 19:31:00,78.5,63.5,29.92,North,0,0.0,0.0,60,0.00,,,0.00,WUHU216HW,2013-07-23 02:31:00,
2013-07-22 19:33:00,78.5,63.5,29.92,North,0,0.0,0.0,60,0.00,,,0.00,WUHU216HW,2013-07-23 02:33:00,
2013-07-22 19:34:00,78.5,63.5,29.92,North,0,0.0,0.0,60,0.00,,,0.00,WUHU216HW,2013-07-23 02:34:00,
2013-07-22 19:36:00,78.3,62.8,29.92,North,0,0.0,0.0,59,0.00,,,0.00,WUHU216HW,2013-07-23 02:36:00,
2013-07-22 19:37:00,78.3,62.8,29.92,North,0,0.0,0.0,59,0.00,,,0.00,WUHU216HW,2013-07-23 02:37:00,
2013-07-22 19:38:00,78.3,62.8,29.92,North,0,0.0,0.0,59,0.00,,,0.00,WUHU216HW,2013-07-23 02:38:00,
2013-07-22 19:40:00,78.3,62.8,29.92,North,0,0.0,0.0,59,0.00,,,0.00,WUHU216HW,2013-07-23 02:40:00,
2013-07-22 19:41:00,78.3,62.8,29.92,North,0,0.0,0.0,59,0.00,,,0.00,WUHU216HW,2013-07-23 02:41:00,
2013-07-22 19:42:00,78.3,62.8,29.92,North,0,0.0,0.0,59,0.00,,,0.00,WUHU216HW,2013-07-23 02:42:00,
2013-07-22 19:43:00,78.3,62.8,29.92,North,0,0.0,0.0,59,0.00,,,0.00,WUHU216HW,2013-07-23 02:43:00,
2013-07-22 19:46:00,78.3,62.8,29.92,North,0,0.0,0.0,59,0.00,,,0.00,WUHU216HW,2013-07-23 02:46:00,
2013-07-22 19:47:00,78.1,62.6,29.92,North,0,0.0,0.0,59,0.00,,,0.00,WUHU216HW,2013-07-23 02:47:00,
2013-07-22 19:49:00,78.1,62.6,29.93,North,0,0.0,0.0,59,0.00,,,0.00,WUHU216HW,2013-07-23 02:49:00,
2013-07-22 19:51:00,78.1,62.6,29.93,North,0,0.0,0.0,59,0.00,,,0.00,WUHU216HW,2013-07-23 02:51:00,
2013-07-22 19:53:00,78.1,62.6,29.93,North,0,0.0,0.0,59,0.00,,,0.00,WUHU216HW,2013-07-23 02:53:00,
2013-07-22 19:54:00,78.1,62.6,29.93,North,0,0.0,0.0,59,0.00,,,0.00,WUHU216HW,2013-07-23 02:54:00,
2013-07-22 19:55:00,78.1,62.6,29.93,North,0,0.0,0.0,59,0.00,,,0.00,WUHU216HW,2013-07-23 02:55:00,
2013-07-22 19:56:00,77.9,62.5,29.93,North,0,0.0,0.0,59,0.00,,,0.00,WUHU216HW,2013-07-23 02:56:00,
2013-07-22 20:00:00,77.9,63.0,29.93,North,0,0.0,0.0,60,0.00,,,0.00,WUHU216HW,2013-07-23 03:00:00,
2013-07-22 20:01:00,77.9,63.0,29.93,North,0,0.0,0.0,60,0.00,,,0.00,WUHU216HW,2013-07-23 03:01:00,
2013-07-22 20:02:00,77.9,63.0,29.93,North,0,0.0,0.0,60,0.00,,,0.00,WUHU216HW,2013-07-23 03:02:00,
2013-07-22 20:03:00,77.9,63.0,29.93,North,0,0.0,0.0,60,0.00,,,0.00,WUHU216HW,2013-07-23 03:03:00,
2013-07-22 20:05:00,77.9,63.0,29.93,North,0,0.0,0.0,60,0.00,,,0.00,WUHU216HW,2013-07-23 03:05:00,
2013-07-22 20:06:00,77.9,62.5,29.93,North,0,0.0,0.0,59,0.00,,,0.00,WUHU216HW,2013-07-23 03:06:00,
2013-07-22 20:07:00,77.9,62.5,29.93,North,0,0.0,0.0,59,0.00,,,0.00,WUHU216HW,2013-07-23 03:07:00,
2013-07-22 20:09:00,77.8,62.3,29.94,North,0,0.0,0.0,59,0.00,,,0.00,WUHU216HW,2013-07-23 03:09:00,
2013-07-22 20:10:00,77.8,62.3,29.94,North,0,0.0,0.0,59,0.00,,,0.00,WUHU216HW,2013-07-23 03:10:00,
2013-07-22 20:12:00,77.8,62.8,29.94,North,0,0.0,0.0,60,0.00,,,0.00,WUHU216HW,2013-07-23 03:12:00,
2013-07-22 20:14:00,77.8,62.8,29.94,North,0,0.0,0.0,60,0.00,,,0.00,WUHU216HW,2013-07-23 03:14:00,
2013-07-22 20:15:00,77.6,62.1,29.94,North,0,0.0,0.0,59,0.00,,,0.00,WUHU216HW,2013-07-23 03:15:00,
2013-07-22 20:16:00,77.6,62.1,29.94,North,0,0.0,0.0,59,0.00,,,0.00,WUHU216HW,2013-07-23 03:16:00,
2013-07-22 20:17:00,77.6,62.1,29.94,North,0,0.0,0.0,59,0.00,,,0.00,WUHU216HW,2013-07-23 03:17:00,
2013-07-22 20:20:00,77.6,62.6,29.94,North,0,0.0,0.0,60,0.00,,,0.00,WUHU216HW,2013-07-23 03:20:00,
2013-07-22 20:21:00,77.6,62.6,29.94,North,0,0.0,0.0,60,0.00,,,0.00,WUHU216HW,2013-07-23 03:21:00,
2013-07-22 20:22:00,77.6,62.6,29.94,North,0,0.0,0.0,60,0.00,,,0.00,WUHU216HW,2013-07-23 03:22:00,
2013-07-22 20:24:00,77.6,62.6,29.94,North,0,0.0,0.0,60,0.00,,,0.00,WUHU216HW,2013-07-23 03:24:00,
2013-07-22 20:25:00,77.6,62.6,29.94,North,0,0.0,0.0,60,0.00,,,0.00,WUHU216HW,2013-07-23 03:25:00,
2013-07-22 20:26:00,77.6,62.6,29.94,North,0,0.0,0.0,60,0.00,,,0.00,WUHU216HW,2013-07-23 03:26:00,
2013-07-22 20:27:00,77.4,62.5,29.94,North,0,0.0,0.0,60,0.00,,,0.00,WUHU216HW,2013-07-23 03:27:00,
2013-07-22 20:29:00,77.4,62.5,29.94,North,0,0.0,0.0,60,0.00,,,0.00,WUHU216HW,2013-07-23 03:29:00,
2013-07-22 20:30:00,77.4,62.5,29.94,North,0,0.0,0.0,60,0.00,,,0.00,WUHU216HW,2013-07-23 03:30:00,
2013-07-22 20:32:00,77.4,62.5,29.94,North,0,0.0,0.0,60,0.00,,,0.00,WUHU216HW,2013-07-23 03:32:00,
2013-07-22 20:33:00,77.4,62.5,29.94,North,0,0.0,0.0,60,0.00,,,0.00,WUHU216HW,2013-07-23 03:33:00,
2013-07-22 20:35:00,77.4,62.9,29.94,North,0,0.0,0.0,61,0.00,,,0.00,WUHU216HW,2013-07-23 03:35:00,
2013-07-22 20:36:00,77.4,62.9,29.94,North,0,0.0,0.0,61,0.00,,,0.00,WUHU216HW,2013-07-23 03:36:00,
2013-07-22 20:37:00,77.2,62.7,29.94,North,0,0.0,0.0,61,0.00,,,0.00,WUHU216HW,2013-07-23 03:37:00,
2013-07-22 20:40:00,77.2,62.7,29.94,North,0,0.0,0.0,61,0.00,,,0.00,WUHU216HW,2013-07-23 03:40:00,
2013-07-22 20:41:00,77.2,62.7,29.95,North,0,0.0,0.0,61,0.00,,,0.00,WUHU216HW,2013-07-23 03:41:00,
2013-07-22 20:42:00,77.2,62.7,29.95,North,0,0.0,0.0,61,0.00,,,0.00,WUHU216HW,2013-07-23 03:42:00,
2013-07-22 20:43:00,77.0,62.6,29.95,North,0,0.0,0.0,61,0.00,,,0.00,WUHU216HW,2013-07-23 03:43:00,
2013-07-22 20:45:00,77.0,62.6,29.95,North,0,0.0,0.0,61,0.00,,,0.00,WUHU216HW,2013-07-23 03:45:00,
2013-07-22 20:47:00,77.0,62.6,29.95,North,0,0.0,0.0,61,0.00,,,0.00,WUHU216HW,2013-07-23 03:47:00,
2013-07-22 20:48:00,77.0,62.6,29.95,North,0,0.0,0.0,61,0.00,,,0.00,WUHU216HW,2013-07-23 03:48:00,
2013-07-22 20:51:00,77.0,62.6,29.95,North,0,0.0,0.0,61,0.00,,,0.00,WUHU216HW,2013-07-23 03:51:00,
2013-07-22 20:52:00,77.0,63.0,29.95,North,0,0.0,0.0,62,0.00,,,0.00,WUHU216HW,2013-07-23 03:52:00,
2013-07-22 20:53:00,77.0,62.6,29.95,North,0,0.0,0.0,61,0.00,,,0.00,WUHU216HW,2013-07-23 03:53:00,
2013-07-22 20:54:00,77.0,63.0,29.95,North,0,0.0,0.0,62,0.00,,,0.00,WUHU216HW,2013-07-23 03:54:00,
2013-07-22 20:56:00,77.0,63.0,29.95,North,0,0.0,0.0,62,0.00,,,0.00,WUHU216HW,2013-07-23 03:56:00,
2013-07-22 20:57:00,76.9,62.8,29.95,North,0,0.0,0.0,62,0.00,,,0.00,WUHU216HW,2013-07-23 03:57:00,
2013-07-22 20:58:00,76.9,62.8,29.95,North,0,0.0,0.0,62,0.00,,,0.00,WUHU216HW,2013-07-23 03:58:00,
2013-07-22 20:59:00,76.9,62.8,29.95,North,0,0.0,0.0,62,0.00,,,0.00,WUHU216HW,2013-07-23 03:59:00,
2013-07-22 21:01:00,76.9,62.8,29.95,North,0,0.0,0.0,62,0.00,,,0.00,WUHU216HW,2013-07-23 04:01:00,
2013-07-22 21:03:00,76.9,62.8,29.96,North,0,0.0,0.0,62,0.00,,,0.00,WUHU216HW,2013-07-23 04:03:00,
2013-07-22 21:06:00,76.7,62.6,29.96,North,0,0.0,0.0,62,0.00,,,0.00,WUHU216HW,2013-07-23 04:06:00,
2013-07-22 21:07:00,76.7,62.6,29.96,North,0,0.0,0.0,62,0.00,,,0.00,WUHU216HW,2013-07-23 04:07:00,
2013-07-22 21:09:00,76.5,62.9,29.96,North,0,0.0,0.0,63,0.00,,,0.00,WUHU216HW,2013-07-23 04:09:00,
2013-07-22 21:12:00,76.3,62.8,29.96,North,0,0.0,0.0,63,0.00,,,0.00,WUHU216HW,2013-07-23 04:12:00,
2013-07-22 21:13:00,76.3,62.8,29.96,North,0,0.0,0.0,63,0.00,,,0.00,WUHU216HW,2013-07-23 04:13:00,
2013-07-22 21:14:00,76.3,62.8,29.96,North,0,0.0,0.0,63,0.00,,,0.00,WUHU216HW,2013-07-23 04:14:00,
2013-07-22 21:15:00,76.3,62.8,29.96,North,0,0.0,0.0,63,0.00,,,0.00,WUHU216HW,2013-07-23 04:15:00,
2013-07-22 21:18:00,76.3,62.8,29.96,North,0,0.0,0.0,63,0.00,,,0.00,WUHU216HW,2013-07-23 04:18:00,
2013-07-22 21:19:00,76.3,62.8,29.96,North,0,0.0,0.0,63,0.00,,,0.00,WUHU216HW,2013-07-23 04:19:00,
2013-07-22 21:20:00,76.3,62.8,29.97,North,0,0.0,0.0,63,0.00,,,0.00,WUHU216HW,2013-07-23 04:20:00,
2013-07-22 21:21:00,76.3,62.8,29.97,North,0,0.0,0.0,63,0.00,,,0.00,WUHU216HW,2013-07-23 04:21:00,
2013-07-22 21:24:00,76.3,63.2,29.97,North,0,0.0,0.0,64,0.00,,,0.00,WUHU216HW,2013-07-23 04:24:00,
2013-07-22 21:26:00,76.1,63.1,29.97,North,0,0.0,0.0,64,0.00,,,0.00,WUHU216HW,2013-07-23 04:26:00,
2013-07-22 21:27:00,76.1,63.1,29.97,North,0,0.0,0.0,64,0.00,,,0.00,WUHU216HW,2013-07-23 04:27:00,
2013-07-22 21:29:00,76.1,63.1,29.97,North,0,0.0,0.0,64,0.00,,,0.00,WUHU216HW,2013-07-23 04:29:00,
2013-07-22 21:31:00,76.1,63.1,29.97,North,0,0.0,0.0,64,0.00,,,0.00,WUHU216HW,2013-07-23 04:31:00,
2013-07-22 21:32:00,76.1,63.1,29.97,North,0,0.0,0.0,64,0.00,,,0.00,WUHU216HW,2013-07-23 04:32:00,
2013-07-22 21:33:00,76.0,62.9,29.97,North,0,0.0,0.0,64,0.00,,,0.00,WUHU216HW,2013-07-23 04:33:00,
2013-07-22 21:34:00,76.0,62.9,29.97,North,0,0.0,0.0,64,0.00,,,0.00,WUHU216HW,2013-07-23 04:34:00,
2013-07-22 21:36:00,76.0,62.9,29.97,North,0,0.0,0.0,64,0.00,,,0.00,WUHU216HW,2013-07-23 04:36:00,
2013-07-22 21:37:00,76.0,62.9,29.97,North,0,0.0,0.0,64,0.00,,,0.00,WUHU216HW,2013-07-23 04:37:00,
2013-07-22 21:38:00,76.0,63.4,29.97,North,0,0.0,0.0,65,0.00,,,0.00,WUHU216HW,2013-07-23 04:38:00,
2013-07-22 21:39:00,76.0,63.4,29.97,North,0,0.0,0.0,65,0.00,,,0.00,WUHU216HW,2013-07-23 04:39:00,
2013-07-22 21:40:00,75.8,63.2,29.97,North,0,0.0,0.0,65,0.00,,,0.00,WUHU216HW,2013-07-23 04:40:00,
2013-07-22 21:42:00,75.8,63.2,29.97,North,0,0.0,0.0,65,0.00,,,0.00,WUHU216HW,2013-07-23 04:42:00,
2013-07-22 21:43:00,75.8,63.2,29.97,North,0,0.0,0.0,65,0.00,,,0.00,WUHU216HW,2013-07-23 04:43:00,
2013-07-22 21:45:00,75.6,63.5,29.97,North,0,0.0,0.0,66,0.00,,,0.00,WUHU216HW,2013-07-23 04:45:00,
2013-07-22 21:47:00,75.6,63.5,29.97,North,0,0.0,0.0,66,0.00,,,0.00,WUHU216HW,2013-07-23 04:47:00,
2013-07-22 21:49:00,75.6,63.5,29.97,North,0,0.0,0.0,66,0.00,,,0.00,WUHU216HW,2013-07-23 04:49:00,
2013-07-22 21:50:00,75.6,63.5,29.97,North,0,0.0,0.0,66,0.00,,,0.00,WUHU216HW,2013-07-23 04:50:00,
2013-07-22 21:51:00,75.6,63.5,29.97,North,0,0.0,0.0,66,0.00,,,0.00,WUHU216HW,2013-07-23 04:51:00,
2013-07-22 21:54:00,75.6,63.5,29.97,North,0,0.0,0.0,66,0.00,,,0.00,WUHU216HW,2013-07-23 04:54:00,
2013-07-22 21:55:00,75.6,63.5,29.97,North,0,0.0,0.0,66,0.00,,,0.00,WUHU216HW,2013-07-23 04:55:00,
2013-07-22 21:56:00,75.6,63.5,29.98,North,0,0.0,0.0,66,0.00,,,0.00,WUHU216HW,2013-07-23 04:56:00,
2013-07-22 21:57:00,75.6,63.5,29.98,North,0,0.0,0.0,66,0.00,,,0.00,WUHU216HW,2013-07-23 04:57:00,
2013-07-22 21:59:00,75.6,63.5,29.97,North,0,0.0,0.0,66,0.00,,,0.00,WUHU216HW,2013-07-23 04:59:00,
2013-07-22 22:00:00,75.6,63.5,29.98,North,0,0.0,0.0,66,0.00,,,0.00,WUHU216HW,2013-07-23 05:00:00,
2013-07-22 22:01:00,75.6,63.5,29.98,North,0,0.0,0.0,66,0.00,,,0.00,WUHU216HW,2013-07-23 05:01:00,
2013-07-22 22:02:00,75.6,63.5,29.98,North,0,0.0,0.0,66,0.00,,,0.00,WUHU216HW,2013-07-23 05:02:00,
2013-07-22 22:05:00,75.6,63.5,29.97,North,0,0.0,0.0,66,0.00,,,0.00,WUHU216HW,2013-07-23 05:05:00,
2013-07-22 22:06:00,75.8,63.6,29.98,North,0,0.0,0.0,66,0.00,,,0.00,WUHU216HW,2013-07-23 05:06:00,
2013-07-22 22:07:00,75.6,63.5,29.98,North,0,0.0,0.0,66,0.00,,,0.00,WUHU216HW,2013-07-23 05:07:00,
2013-07-22 22:09:00,75.6,63.5,29.98,North,0,0.0,0.0,66,0.00,,,0.00,WUHU216HW,2013-07-23 05:09:00,
2013-07-22 22:10:00,75.6,63.5,29.98,North,0,0.0,0.0,66,0.00,,,0.00,WUHU216HW,2013-07-23 05:10:00,
2013-07-22 22:11:00,75.6,63.5,29.98,North,0,0.0,0.0,66,0.00,,,0.00,WUHU216HW,2013-07-23 05:11:00,
2013-07-22 22:12:00,75.6,63.5,29.98,North,0,0.0,0.0,66,0.00,,,0.00,WUHU216HW,2013-07-23 05:12:00,
2013-07-22 22:13:00,75.6,63.5,29.98,North,0,0.0,0.0,66,0.00,,,0.00,WUHU216HW,2013-07-23 05:13:00,
2013-07-22 22:15:00,75.8,63.6,29.98,North,0,0.0,0.0,66,0.00,,,0.00,WUHU216HW,2013-07-23 05:15:00,
2013-07-22 22:16:00,75.8,63.6,29.98,North,0,0.0,0.0,66,0.00,,,0.00,WUHU216HW,2013-07-23 05:16:00,
2013-07-22 22:17:00,75.8,63.6,29.98,North,0,0.0,0.0,66,0.00,,,0.00,WUHU216HW,2013-07-23 05:17:00,
2013-07-22 22:18:00,75.8,63.6,29.98,North,0,0.0,0.0,66,0.00,,,0.00,WUHU216HW,2013-07-23 05:18:00,
2013-07-22 22:20:00,75.8,63.6,29.98,North,0,0.0,0.0,66,0.00,,,0.00,WUHU216HW,2013-07-23 05:20:00,
2013-07-22 22:21:00,75.8,63.6,29.98,North,0,0.0,0.0,66,0.00,,,0.00,WUHU216HW,2013-07-23 05:21:00,
2013-07-22 22:23:00,75.8,63.6,29.98,North,0,0.0,0.0,66,0.00,,,0.00,WUHU216HW,2013-07-23 05:23:00,
2013-07-22 22:26:00,75.8,63.6,29.98,North,0,0.0,0.0,66,0.00,,,0.00,WUHU216HW,2013-07-23 05:26:00,
2013-07-22 22:29:00,75.8,63.6,29.98,North,0,0.0,0.0,66,0.00,,,0.00,WUHU216HW,2013-07-23 05:29:00,
2013-07-22 22:31:00,75.8,63.6,29.97,North,0,0.0,0.0,66,0.00,,,0.00,WUHU216HW,2013-07-23 05:31:00,
2013-07-22 22:32:00,75.8,63.6,29.97,North,0,0.0,0.0,66,0.00,,,0.00,WUHU216HW,2013-07-23 05:32:00,
2013-07-22 22:33:00,75.6,63.5,29.97,North,0,0.0,0.0,66,0.00,,,0.00,WUHU216HW,2013-07-23 05:33:00,
2013-07-22 22:34:00,75.8,63.6,29.98,North,0,0.0,0.0,66,0.00,,,0.00,WUHU216HW,2013-07-23 05:34:00,
2013-07-22 22:35:00,75.8,63.6,29.97,North,0,0.0,0.0,66,0.00,,,0.00,WUHU216HW,2013-07-23 05:35:00,
2013-07-22 22:37:00,75.6,63.5,29.97,North,0,0.0,0.0,66,0.00,,,0.00,WUHU216HW,2013-07-23 05:37:00,
2013-07-22 22:38:00,75.6,63.8,29.97,North,0,0.0,0.0,67,0.00,,,0.00,WUHU216HW,2013-07-23 05:38:00,
2013-07-22 22:39:00,75.6,63.8,29.97,North,0,0.0,0.0,67,0.00,,,0.00,WUHU216HW,2013-07-23 05:39:00,
2013-07-22 22:42:00,75.6,63.8,29.97,North,0,0.0,0.0,67,0.00,,,0.00,WUHU216HW,2013-07-23 05:42:00,
2013-07-22 22:44:00,75.6,63.8,29.98,North,0,0.0,0.0,67,0.00,,,0.00,WUHU216HW,2013-07-23 05:44:00,
2013-07-22 22:46:00,75.6,63.8,29.98,North,0,0.0,0.0,67,0.00,,,0.00,WUHU216HW,2013-07-23 05:46:00,
2013-07-22 22:48:00,75.6,63.8,29.98,North,0,0.0,0.0,67,0.00,,,0.00,WUHU216HW,2013-07-23 05:48:00,
2013-07-22 22:49:00,75.6,63.8,29.98,North,0,0.0,0.0,67,0.00,,,0.00,WUHU216HW,2013-07-23 05:49:00,
2013-07-22 22:52:00,75.6,63.8,29.98,North,0,0.0,0.0,67,0.00,,,0.00,WUHU216HW,2013-07-23 05:52:00,
2013-07-22 22:54:00,75.4,63.7,29.98,North,0,0.0,0.0,67,0.00,,,0.00,WUHU216HW,2013-07-23 05:54:00,
2013-07-22 22:55:00,75.6,63.8,29.98,North,0,0.0,0.0,67,0.00,,,0.00,WUHU216HW,2013-07-23 05:55:00,
2013-07-22 22:57:00,75.4,63.7,29.98,North,0,0.0,0.0,67,0.00,,,0.00,WUHU216HW,2013-07-23 05:57:00,
2013-07-22 22:59:00,75.4,63.7,29.98,North,0,0.0,0.0,67,0.00,,,0.00,WUHU216HW,2013-07-23 05:59:00,
2013-07-22 23:01:00,75.4,64.1,29.98,North,0,0.0,0.0,68,0.00,,,0.00,WUHU216HW,2013-07-23 06:01:00,
2013-07-22 23:03:00,75.4,64.1,29.98,North,0,0.0,0.0,68,0.00,,,0.00,WUHU216HW,2013-07-23 06:03:00,
2013-07-22 23:04:00,75.4,64.1,29.98,North,0,0.0,0.0,68,0.00,,,0.00,WUHU216HW,2013-07-23 06:04:00,
2013-07-22 23:06:00,75.4,64.1,29.98,North,0,0.0,0.0,68,0.00,,,0.00,WUHU216HW,2013-07-23 06:06:00,
2013-07-22 23:08:00,75.4,64.1,29.98,North,0,0.0,0.0,68,0.00,,,0.00,WUHU216HW,2013-07-23 06:08:00,
2013-07-22 23:10:00,75.4,64.1,29.98,North,0,0.0,0.0,68,0.00,,,0.00,WUHU216HW,2013-07-23 06:10:00,
2013-07-22 23:11:00,75.2,63.9,29.98,North,0,0.0,0.0,68,0.00,,,0.00,WUHU216HW,2013-07-23 06:11:00,
2013-07-22 23:13:00,75.2,63.9,29.98,North,0,0.0,0.0,68,0.00,,,0.00,WUHU216HW,2013-07-23 06:13:00,
2013-07-22 23:15:00,75.2,63.9,29.98,North,0,0.0,0.0,68,0.00,,,0.00,WUHU216HW,2013-07-23 06:15:00,
2013-07-22 23:16:00,75.2,63.9,29.98,North,0,0.0,0.0,68,0.00,,,0.00,WUHU216HW,2013-07-23 06:16:00,
2013-07-22 23:18:00,75.2,63.9,29.98,North,0,0.0,0.0,68,0.00,,,0.00,WUHU216HW,2013-07-23 06:18:00,
2013-07-22 23:19:00,75.2,64.4,29.98,North,0,0.0,0.0,69,0.00,,,0.00,WUHU216HW,2013-07-23 06:19:00,
2013-07-22 23:20:00,75.2,64.4,29.98,North,0,0.0,0.0,69,0.00,,,0.00,WUHU216HW,2013-07-23 06:20:00,
2013-07-22 23:21:00,75.2,64.4,29.98,North,0,0.0,0.0,69,0.00,,,0.00,WUHU216HW,2013-07-23 06:21:00,
2013-07-22 23:22:00,75.2,64.4,29.98,North,0,0.0,0.0,69,0.00,,,0.00,WUHU216HW,2013-07-23 06:22:00,
2013-07-22 23:23:00,75.2,64.4,29.98,North,0,0.0,0.0,69,0.00,,,0.00,WUHU216HW,2013-07-23 06:23:00,
2013-07-22 23:26:00,75.2,64.4,29.98,North,0,0.0,0.0,69,0.00,,,0.00,WUHU216HW,2013-07-23 06:26:00,
2013-07-22 23:27:00,75.2,64.4,29.98,North,0,0.0,0.0,69,0.00,,,0.00,WUHU216HW,2013-07-23 06:27:00,
2013-07-22 23:29:00,75.1,64.2,29.98,North,0,0.0,0.0,69,0.00,,,0.00,WUHU216HW,2013-07-23 06:29:00,
2013-07-22 23:31:00,75.1,64.2,29.98,North,0,0.0,0.0,69,0.00,,,0.00,WUHU216HW,2013-07-23 06:31:00,
2013-07-22 23:33:00,75.1,64.2,29.98,North,0,0.0,0.0,69,0.00,,,0.00,WUHU216HW,2013-07-23 06:33:00,
2013-07-22 23:35:00,75.1,64.2,29.98,North,0,0.0,0.0,69,0.00,,,0.00,WUHU216HW,2013-07-23 06:35:00,
2013-07-22 23:36:00,75.1,64.2,29.98,North,0,0.0,0.0,69,0.00,,,0.00,WUHU216HW,2013-07-23 06:36:00,
2013-07-22 23:38:00,75.1,64.2,29.98,North,0,0.0,0.0,69,0.00,,,0.00,WUHU216HW,2013-07-23 06:38:00,
2013-07-22 23:41:00,75.1,64.6,29.98,North,0,0.0,0.0,70,0.00,,,0.00,WUHU216HW,2013-07-23 06:41:00,
2013-07-22 23:42:00,75.1,64.2,29.98,North,0,0.0,0.0,69,0.00,,,0.00,WUHU216HW,2013-07-23 06:42:00,
2013-07-22 23:43:00,75.1,64.6,29.98,North,0,0.0,0.0,70,0.00,,,0.00,WUHU216HW,2013-07-23 06:43:00,
2013-07-22 23:44:00,75.1,64.6,29.98,North,0,0.0,0.0,70,0.00,,,0.00,WUHU216HW,2013-07-23 06:44:00,
2013-07-22 23:47:00,74.9,64.4,29.98,North,0,0.0,0.0,70,0.00,,,0.00,WUHU216HW,2013-07-23 06:47:00,
2013-07-22 23:48:00,74.9,64.4,29.98,North,0,0.0,0.0,70,0.00,,,0.00,WUHU216HW,2013-07-23 06:48:00,
2013-07-22 23:49:00,74.9,64.4,29.98,North,0,0.0,0.0,70,0.00,,,0.00,WUHU216HW,2013-07-23 06:49:00,
2013-07-22 23:50:00,74.9,64.4,29.98,North,0,0.0,0.0,70,0.00,,,0.00,WUHU216HW,2013-07-23 06:50:00,
2013-07-22 23:53:00,74.9,64.4,29.98,North,0,0.0,0.0,70,0.00,,,0.00,WUHU216HW,2013-07-23 06:53:00,
2013-07-22 23:54:00,74.9,64.4,29.98,North,0,0.0,0.0,70,0.00,,,0.00,WUHU216HW,2013-07-23 06:54:00,
2013-07-22 23:55:00,74.9,64.4,29.98,North,0,0.0,0.0,70,0.00,,,0.00,WUHU216HW,2013-07-23 06:55:00,
2013-07-22 23:58:00,74.9,64.4,29.98,North,0,0.0,0.0,70,0.00,,,0.00,WUHU216HW,2013-07-23 06:58:00,
2013-07-22 23:59:00,74.9,64.4,29.98,North,0,0.0,0.0,70,0.00,,,0.00,WUHU216HW,2013-07-23 06:59:00,